Wetterdaten: Samstag, 28.12.2013
Datum Zeit Temp. Aussen +5cm Feuchte Auss Luftdruck Regen Sonnenschein Regendauer UV Solar Windben
28.12.2013 00:00 10,0 C 8,3 C 95 % 995,0 hPa 0,0 l/m 0 min 2 min 0,0 UV-I 0 W/m 23,2 km/h (4 Bft)
28.12.2013 00:02 10,0 C 8,3 C 95 % 995,1 hPa 0,0 l/m 0 min 2 min 0,0 UV-I 0 W/m 18,0 km/h (3 Bft)
28.12.2013 00:04 10,0 C 8,3 C 95 % 995,1 hPa 0,0 l/m 0 min 2 min 0,0 UV-I 0 W/m 23,2 km/h (4 Bft)
28.12.2013 00:06 10,0 C 8,3 C 95 % 995,1 hPa 0,0 l/m 0 min 2 min 0,0 UV-I 0 W/m 18,0 km/h (3 Bft)
28.12.2013 00:08 10,1 C 8,3 C 95 % 995,2 hPa 0,2 l/m 0 min 2 min 0,0 UV-I 0 W/m 20,6 km/h (4 Bft)
28.12.2013 00:10 10,1 C 8,3 C 95 % 995,2 hPa 0,0 l/m 0 min 2 min 0,0 UV-I 0 W/m 12,9 km/h (3 Bft)
28.12.2013 00:12 10,1 C 8,3 C 95 % 995,2 hPa 0,0 l/m 0 min 2 min 0,0 UV-I 0 W/m 18,0 km/h (3 Bft)
28.12.2013 00:14 10,1 C 8,3 C 95 % 995,2 hPa 0,0 l/m 0 min 2 min 0,0 UV-I 0 W/m 30,9 km/h (5 Bft)
28.12.2013 00:16 10,1 C 8,3 C 95 % 995,3 hPa 0,2 l/m 0 min 2 min 0,0 UV-I 0 W/m 28,3 km/h (4 Bft)
28.12.2013 00:18 10,2 C 8,3 C 95 % 995,2 hPa 0,0 l/m 0 min 2 min 0,0 UV-I 0 W/m 18,0 km/h (3 Bft)
28.12.2013 00:20 10,2 C 8,3 C 95 % 995,2 hPa 0,0 l/m 0 min 2 min 0,0 UV-I 0 W/m 10,3 km/h (2 Bft)
28.12.2013 00:22 10,2 C 8,3 C 95 % 995,2 hPa 0,2 l/m 0 min 2 min 0,0 UV-I 0 W/m 15,4 km/h (3 Bft)
28.12.2013 00:24 10,2 C 8,3 C 95 % 995,2 hPa 0,0 l/m 0 min 2 min 0,0 UV-I 0 W/m 12,9 km/h (3 Bft)
28.12.2013 00:26 10,2 C 8,3 C 96 % 995,2 hPa 0,0 l/m 0 min 2 min 0,0 UV-I 0 W/m 12,9 km/h (3 Bft)
28.12.2013 00:28 10,2 C 8,3 C 96 % 995,2 hPa 0,0 l/m 0 min 2 min 0,0 UV-I 0 W/m 10,3 km/h (2 Bft)
28.12.2013 00:30 10,2 C 8,3 C 96 % 995,2 hPa 0,0 l/m 0 min 2 min 0,0 UV-I 0 W/m 10,3 km/h (2 Bft)
28.12.2013 00:32 10,2 C 8,3 C 96 % 995,2 hPa 0,0 l/m 0 min 2 min 0,0 UV-I 0 W/m 12,9 km/h (3 Bft)
28.12.2013 00:34 10,2 C 8,3 C 96 % 995,2 hPa 0,0 l/m 0 min 0 min 0,0 UV-I 0 W/m 12,9 km/h (3 Bft)
28.12.2013 00:36 10,1 C 8,3 C 96 % 995,1 hPa 0,0 l/m 0 min 2 min 0,0 UV-I 0 W/m 12,9 km/h (3 Bft)
28.12.2013 00:38 10,1 C 8,3 C 95 % 995,2 hPa 0,0 l/m 0 min 2 min 0,0 UV-I 0 W/m 15,4 km/h (3 Bft)
28.12.2013 00:40 10,1 C 8,3 C 95 % 995,1 hPa 0,0 l/m 0 min 2 min 0,0 UV-I 0 W/m 12,9 km/h (3 Bft)
28.12.2013 00:42 10,1 C 8,3 C 95 % 995,0 hPa 0,0 l/m 0 min 2 min 0,0 UV-I 0 W/m 7,7 km/h (2 Bft)
28.12.2013 00:44 10,0 C 8,3 C 95 % 995,1 hPa 0,0 l/m 0 min 2 min 0,0 UV-I 0 W/m 15,4 km/h (3 Bft)
28.12.2013 00:46 10,0 C 8,3 C 96 % 995,0 hPa 0,0 l/m 0 min 2 min 0,0 UV-I 0 W/m 12,9 km/h (3 Bft)
28.12.2013 00:48 10,0 C 8,3 C 96 % 995,0 hPa 0,0 l/m 0 min 2 min 0,0 UV-I 0 W/m 10,3 km/h (2 Bft)
28.12.2013 00:50 10,0 C 8,3 C 96 % 995,0 hPa 0,0 l/m 0 min 2 min 0,0 UV-I 0 W/m 10,3 km/h (2 Bft)
28.12.2013 00:52 10,0 C 8,3 C 96 % 995,0 hPa 0,0 l/m 0 min 2 min 0,0 UV-I 0 W/m 12,9 km/h (3 Bft)
28.12.2013 00:54 10,1 C 8,3 C 96 % 994,9 hPa 0,0 l/m 0 min 0 min 0,0 UV-I 0 W/m 7,7 km/h (2 Bft)
28.12.2013 00:56 10,1 C 8,3 C 96 % 994,9 hPa 0,0 l/m 0 min 0 min 0,0 UV-I 0 W/m 10,3 km/h (2 Bft)
28.12.2013 00:58 10,1 C 8,9 C 96 % 995,0 hPa 0,0 l/m 0 min 0 min 0,0 UV-I 0 W/m 10,3 km/h (2 Bft)
28.12.2013 01:00 10,1 C 8,9 C 96 % 994,8 hPa 0,0 l/m 0 min 2 min 0,0 UV-I 0 W/m 12,9 km/h (3 Bft)
28.12.2013 01:02 10,2 C 8,9 C 96 % 994,8 hPa 0,0 l/m 0 min 2 min 0,0 UV-I 0 W/m 18,0 km/h (3 Bft)
28.12.2013 01:04 10,2 C 8,9 C 96 % 994,8 hPa 0,0 l/m 0 min 2 min 0,0 UV-I 0 W/m 5,1 km/h (1 Bft)
28.12.2013 01:06 10,3 C 8,9 C 96 % 994,8 hPa 0,0 l/m 0 min 2 min 0,0 UV-I 0 W/m 5,1 km/h (1 Bft)
28.12.2013 01:08 10,3 C 8,9 C 96 % 994,8 hPa 0,0 l/m 0 min 2 min 0,0 UV-I 0 W/m 10,3 km/h (2 Bft)
28.12.2013 01:10 10,4 C 8,9 C 96 % 994,8 hPa 0,0 l/m 0 min 2 min 0,0 UV-I 0 W/m 10,3 km/h (2 Bft)
28.12.2013 01:12 10,4 C 8,9 C 96 % 994,8 hPa 0,2 l/m 0 min 2 min 0,0 UV-I 0 W/m 10,3 km/h (2 Bft)
28.12.2013 01:14 10,4 C 8,9 C 96 % 994,9 hPa 0,2 l/m 0 min 2 min 0,0 UV-I 0 W/m 7,7 km/h (2 Bft)
28.12.2013 01:16 10,4 C 8,9 C 96 % 994,8 hPa 0,0 l/m 0 min 2 min 0,0 UV-I 0 W/m 5,1 km/h (1 Bft)
28.12.2013 01:18 10,5 C 8,9 C 96 % 994,9 hPa 0,0 l/m 0 min 2 min 0,0 UV-I 0 W/m 12,9 km/h (3 Bft)
28.12.2013 01:20 10,5 C 8,9 C 96 % 995,0 hPa 0,2 l/m 0 min 2 min 0,0 UV-I 0 W/m 15,4 km/h (3 Bft)
28.12.2013 01:22 10,6 C 8,9 C 96 % 995,0 hPa 0,0 l/m 0 min 2 min 0,0 UV-I 0 W/m 5,1 km/h (1 Bft)
28.12.2013 01:24 10,6 C 8,9 C 96 % 994,9 hPa 0,0 l/m 0 min 2 min 0,0 UV-I 0 W/m 5,1 km/h (1 Bft)
28.12.2013 01:26 10,6 C 8,9 C 96 % 994,9 hPa 0,0 l/m 0 min 2 min 0,0 UV-I 0 W/m 7,7 km/h (2 Bft)
28.12.2013 01:28 10,6 C 8,9 C 96 % 995,0 hPa 0,2 l/m 0 min 2 min 0,0 UV-I 0 W/m 10,3 km/h (2 Bft)
28.12.2013 01:30 10,6 C 8,9 C 96 % 994,9 hPa 0,0 l/m 0 min 2 min 0,0 UV-I 0 W/m 12,9 km/h (3 Bft)
28.12.2013 01:32 10,6 C 8,9 C 96 % 994,8 hPa 0,0 l/m 0 min 2 min 0,0 UV-I 0 W/m 7,7 km/h (2 Bft)
28.12.2013 01:34 10,6 C 8,9 C 96 % 994,8 hPa 0,0 l/m 0 min 0 min 0,0 UV-I 0 W/m 7,7 km/h (2 Bft)
28.12.2013 01:36 10,6 C 8,9 C 96 % 994,7 hPa 0,0 l/m 0 min 2 min 0,0 UV-I 0 W/m 12,9 km/h (3 Bft)
28.12.2013 01:38 10,6 C 8,9 C 96 % 994,6 hPa 0,0 l/m 0 min 2 min 0,0 UV-I 0 W/m 2,6 km/h (1 Bft)
28.12.2013 01:40 10,6 C 8,9 C 96 % 994,8 hPa 0,0 l/m 0 min 2 min 0,0 UV-I 0 W/m 12,9 km/h (3 Bft)
28.12.2013 01:42 10,6 C 8,9 C 96 % 994,6 hPa 0,0 l/m 0 min 2 min 0,0 UV-I 0 W/m 18,0 km/h (3 Bft)
28.12.2013 01:44 10,6 C 8,9 C 96 % 994,6 hPa 0,0 l/m 0 min 0 min 0,0 UV-I 0 W/m 15,4 km/h (3 Bft)
28.12.2013 01:46 10,6 C 8,9 C 96 % 994,6 hPa 0,0 l/m 0 min 0 min 0,0 UV-I 0 W/m 25,7 km/h (4 Bft)
28.12.2013 01:48 10,6 C 8,9 C 96 % 994,6 hPa 0,0 l/m 0 min 0 min 0,0 UV-I 0 W/m 18,0 km/h (3 Bft)
28.12.2013 01:50 10,6 C 8,9 C 96 % 994,6 hPa 0,0 l/m 0 min 2 min 0,0 UV-I 0 W/m 25,7 km/h (4 Bft)
28.12.2013 01:52 10,6 C 8,9 C 96 % 994,6 hPa 0,0 l/m 0 min 2 min 0,0 UV-I 0 W/m 18,0 km/h (3 Bft)
28.12.2013 01:54 10,6 C 8,9 C 96 % 994,6 hPa 0,0 l/m 0 min 0 min 0,0 UV-I 0 W/m 10,3 km/h (2 Bft)
28.12.2013 01:56 10,6 C 8,9 C 96 % 994,6 hPa 0,0 l/m 0 min 2 min 0,0 UV-I 0 W/m 18,0 km/h (3 Bft)
28.12.2013 01:58 10,6 C 8,9 C 96 % 994,5 hPa 0,0 l/m 0 min 2 min 0,0 UV-I 0 W/m 18,0 km/h (3 Bft)
28.12.2013 02:00 10,6 C 8,9 C 96 % 994,5 hPa 0,0 l/m 0 min 2 min 0,0 UV-I 0 W/m 18,0 km/h (3 Bft)
28.12.2013 02:02 10,7 C 8,9 C 97 % 994,3 hPa 0,0 l/m 0 min 2 min 0,0 UV-I 0 W/m 25,7 km/h (4 Bft)
28.12.2013 02:04 10,7 C 8,9 C 97 % 994,5 hPa 0,0 l/m 0 min 2 min 0,0 UV-I 0 W/m 18,0 km/h (3 Bft)
28.12.2013 02:06 10,7 C 8,9 C 97 % 994,5 hPa 0,0 l/m 0 min 2 min 0,0 UV-I 0 W/m 20,6 km/h (4 Bft)
28.12.2013 02:08 10,7 C 8,9 C 97 % 994,5 hPa 0,0 l/m 0 min 2 min 0,0 UV-I 0 W/m 20,6 km/h (4 Bft)
28.12.2013 02:10 10,7 C 8,9 C 97 % 994,5 hPa 0,0 l/m 0 min 2 min 0,0 UV-I 0 W/m 10,3 km/h (2 Bft)
28.12.2013 02:12 10,7 C 8,9 C 97 % 994,4 hPa 0,2 l/m 0 min 2 min 0,0 UV-I 0 W/m 28,3 km/h (4 Bft)
28.12.2013 02:14 10,7 C 8,9 C 96 % 994,6 hPa 0,0 l/m 0 min 2 min 0,0 UV-I 0 W/m 23,2 km/h (4 Bft)
28.12.2013 02:16 10,8 C 8,9 C 96 % 994,5 hPa 0,0 l/m 0 min 2 min 0,0 UV-I 0 W/m 20,6 km/h (4 Bft)
28.12.2013 02:18 10,8 C 8,9 C 96 % 994,5 hPa 0,0 l/m 0 min 2 min 0,0 UV-I 0 W/m 10,3 km/h (2 Bft)
28.12.2013 02:20 10,8 C 8,9 C 96 % 994,6 hPa 0,0 l/m 0 min 0 min 0,0 UV-I 0 W/m 23,2 km/h (4 Bft)
28.12.2013 02:22 10,8 C 8,9 C 96 % 994,6 hPa 0,0 l/m 0 min 2 min 0,0 UV-I 0 W/m 23,2 km/h (4 Bft)
28.12.2013 02:24 10,8 C 8,9 C 96 % 994,7 hPa 0,0 l/m 0 min 2 min 0,0 UV-I 0 W/m 23,2 km/h (4 Bft)
28.12.2013 02:26 10,9 C 8,9 C 96 % 994,6 hPa 0,0 l/m 0 min 2 min 0,0 UV-I 0 W/m 25,7 km/h (4 Bft)
28.12.2013 02:28 10,9 C 8,9 C 96 % 994,6 hPa 0,0 l/m 0 min 2 min 0,0 UV-I 0 W/m 23,2 km/h (4 Bft)
28.12.2013 02:30 10,9 C 8,9 C 96 % 994,7 hPa 0,0 l/m 0 min 2 min 0,0 UV-I 0 W/m 23,2 km/h (4 Bft)
28.12.2013 02:32 11,0 C 8,9 C 96 % 994,6 hPa 0,0 l/m 0 min 2 min 0,0 UV-I 0 W/m 28,3 km/h (4 Bft)
28.12.2013 02:34 11,0 C 8,9 C 96 % 994,6 hPa 0,0 l/m 0 min 2 min 0,0 UV-I 0 W/m 20,6 km/h (4 Bft)
28.12.2013 02:36 11,1 C 8,9 C 96 % 994,6 hPa 0,0 l/m 0 min 2 min 0,0 UV-I 0 W/m 12,9 km/h (3 Bft)
28.12.2013 02:38 11,1 C 8,9 C 95 % 994,6 hPa 0,0 l/m 0 min 2 min 0,0 UV-I 0 W/m 23,2 km/h (4 Bft)
28.12.2013 02:40 11,1 C 8,9 C 95 % 994,8 hPa 0,0 l/m 0 min 2 min 0,0 UV-I 0 W/m 20,6 km/h (4 Bft)
28.12.2013 02:42 11,1 C 8,9 C 95 % 994,9 hPa 0,0 l/m 0 min 2 min 0,0 UV-I 0 W/m 7,7 km/h (2 Bft)
28.12.2013 02:44 11,1 C 8,9 C 95 % 995,3 hPa 0,0 l/m 0 min 2 min 0,0 UV-I 0 W/m 28,3 km/h (4 Bft)
28.12.2013 02:46 10,9 C 7,8 C 95 % 995,3 hPa 0,2 l/m 0 min 2 min 0,0 UV-I 0 W/m 23,2 km/h (4 Bft)
28.12.2013 02:48 10,7 C 7,8 C 94 % 995,3 hPa 0,0 l/m 0 min 2 min 0,0 UV-I 0 W/m 15,4 km/h (3 Bft)
28.12.2013 02:50 10,4 C 7,2 C 93 % 995,5 hPa 0,4 l/m 0 min 2 min 0,0 UV-I 0 W/m 10,3 km/h (2 Bft)
28.12.2013 02:52 10,2 C 6,7 C 93 % 995,4 hPa 0,6 l/m 0 min 2 min 0,0 UV-I 0 W/m 7,7 km/h (2 Bft)
28.12.2013 02:54 10,1 C 6,7 C 92 % 995,3 hPa 0,2 l/m 0 min 2 min 0,0 UV-I 0 W/m 10,3 km/h (2 Bft)
28.12.2013 02:56 9,9 C 6,7 C 92 % 995,4 hPa 0,0 l/m 0 min 2 min 0,0 UV-I 0 W/m 0,0 km/h (0 Bft)
28.12.2013 02:58 9,8 C 6,7 C 92 % 995,8 hPa 0,0 l/m 0 min 2 min 0,0 UV-I 0 W/m 10,3 km/h (2 Bft)
28.12.2013 03:00 9,6 C 6,7 C 91 % 995,5 hPa 0,2 l/m 0 min 2 min 0,0 UV-I 0 W/m 7,7 km/h (2 Bft)
28.12.2013 03:02 9,4 C 6,7 C 91 % 995,5 hPa 0,2 l/m 0 min 2 min 0,0 UV-I 0 W/m 7,7 km/h (2 Bft)
28.12.2013 03:04 9,3 C 6,7 C 91 % 995,5 hPa 0,0 l/m 0 min 2 min 0,0 UV-I 0 W/m 12,9 km/h (3 Bft)
28.12.2013 03:06 9,2 C 6,7 C 91 % 995,6 hPa 0,0 l/m 0 min 2 min 0,0 UV-I 0 W/m 0,0 km/h (0 Bft)
28.12.2013 03:08 9,1 C 6,7 C 92 % 995,5 hPa 0,0 l/m 0 min 2 min 0,0 UV-I 0 W/m 2,6 km/h (1 Bft)
28.12.2013 03:10 8,9 C 6,7 C 95 % 995,5 hPa 0,4 l/m 0 min 2 min 0,0 UV-I 0 W/m 12,9 km/h (3 Bft)
28.12.2013 03:12 8,8 C 6,7 C 92 % 995,5 hPa 0,0 l/m 0 min 2 min 0,0 UV-I 0 W/m 0,0 km/h (0 Bft)
28.12.2013 03:14 8,8 C 6,1 C 92 % 995,4 hPa 0,0 l/m 0 min 2 min 0,0 UV-I 0 W/m 0,0 km/h (0 Bft)
28.12.2013 03:16 8,7 C 6,7 C 92 % 995,4 hPa 0,2 l/m 0 min 2 min 0,0 UV-I 0 W/m 0,0 km/h (0 Bft)
28.12.2013 03:18 8,7 C 6,7 C 92 % 995,5 hPa 0,2 l/m 0 min 2 min 0,0 UV-I 0 W/m 10,3 km/h (2 Bft)
28.12.2013 03:20 8,6 C 6,1 C 92 % 995,5 hPa 0,0 l/m 0 min 2 min 0,0 UV-I 0 W/m 7,7 km/h (2 Bft)
28.12.2013 03:22 8,5 C 6,1 C 92 % 995,5 hPa 0,0 l/m 0 min 2 min 0,0 UV-I 0 W/m 0,0 km/h (0 Bft)
28.12.2013 03:24 8,4 C 6,1 C 92 % 995,5 hPa 0,0 l/m 0 min 2 min 0,0 UV-I 0 W/m 2,6 km/h (1 Bft)
28.12.2013 03:26 8,4 C 6,1 C 92 % 995,6 hPa 0,2 l/m 0 min 2 min 0,0 UV-I 0 W/m 2,6 km/h (1 Bft)
28.12.2013 03:28 8,3 C 6,1 C 92 % 995,7 hPa 0,0 l/m 0 min 2 min 0,0 UV-I 0 W/m 0,0 km/h (0 Bft)
28.12.2013 03:30 8,3 C 6,1 C 92 % 995,8 hPa 0,2 l/m 0 min 2 min 0,0 UV-I 0 W/m 0,0 km/h (0 Bft)
28.12.2013 03:32 8,2 C 6,1 C 93 % 995,8 hPa 0,0 l/m 0 min 2 min 0,0 UV-I 0 W/m 0,0 km/h (0 Bft)
28.12.2013 03:34 8,2 C 6,1 C 93 % 995,9 hPa 0,0 l/m 0 min 2 min 0,0 UV-I 0 W/m 0,0 km/h (0 Bft)
28.12.2013 03:36 8,2 C 6,1 C 93 % 996,0 hPa 0,2 l/m 0 min 2 min 0,0 UV-I 0 W/m 0,0 km/h (0 Bft)
28.12.2013 03:38 8,1 C 6,1 C 93 % 995,9 hPa 0,0 l/m 0 min 2 min 0,0 UV-I 0 W/m 0,0 km/h (0 Bft)
28.12.2013 03:40 8,1 C 6,1 C 93 % 996,0 hPa 0,2 l/m 0 min 2 min 0,0 UV-I 0 W/m 0,0 km/h (0 Bft)
28.12.2013 03:42 8,1 C 6,1 C 93 % 995,9 hPa 0,0 l/m 0 min 2 min 0,0 UV-I 0 W/m 2,6 km/h (1 Bft)
28.12.2013 03:44 8,0 C 6,1 C 93 % 995,7 hPa 0,2 l/m 0 min 2 min 0,0 UV-I 0 W/m 0,0 km/h (0 Bft)
28.12.2013 03:46 8,0 C 6,1 C 93 % 995,7 hPa 0,0 l/m 0 min 2 min 0,0 UV-I 0 W/m 0,0 km/h (0 Bft)
28.12.2013 03:48 7,9 C 6,1 C 93 % 995,8 hPa 0,0 l/m 0 min 2 min 0,0 UV-I 0 W/m 0,0 km/h (0 Bft)
28.12.2013 03:50 7,9 C 6,1 C 94 % 995,8 hPa 0,2 l/m 0 min 2 min 0,0 UV-I 0 W/m 0,0 km/h (0 Bft)
28.12.2013 03:52 7,9 C 6,1 C 93 % 995,8 hPa 0,0 l/m 0 min 2 min 0,0 UV-I 0 W/m 0,0 km/h (0 Bft)
28.12.2013 03:54 7,9 C 6,1 C 93 % 995,8 hPa 0,0 l/m 0 min 2 min 0,0 UV-I 0 W/m 0,0 km/h (0 Bft)
28.12.2013 03:56 7,8 C 6,1 C 94 % 995,8 hPa 0,0 l/m 0 min 2 min 0,0 UV-I 0 W/m 0,0 km/h (0 Bft)
28.12.2013 03:58 7,8 C 6,1 C 94 % 995,8 hPa 0,0 l/m 0 min 2 min 0,0 UV-I 0 W/m 0,0 km/h (0 Bft)
28.12.2013 04:00 7,8 C 6,1 C 94 % 995,7 hPa 0,0 l/m 0 min 2 min 0,0 UV-I 0 W/m 0,0 km/h (0 Bft)
28.12.2013 04:02 7,8 C 6,1 C 94 % 995,7 hPa 0,0 l/m 0 min 2 min 0,0 UV-I 0 W/m 0,0 km/h (0 Bft)
28.12.2013 04:04 7,8 C 6,1 C 94 % 995,7 hPa 0,2 l/m 0 min 2 min 0,0 UV-I 0 W/m 0,0 km/h (0 Bft)
28.12.2013 04:06 7,7 C 6,1 C 94 % 995,8 hPa 0,0 l/m 0 min 2 min 0,0 UV-I 0 W/m 0,0 km/h (0 Bft)
28.12.2013 04:08 7,7 C 6,1 C 94 % 995,7 hPa 0,0 l/m 0 min 2 min 0,0 UV-I 0 W/m 0,0 km/h (0 Bft)
28.12.2013 04:10 7,7 C 6,1 C 94 % 995,7 hPa 0,0 l/m 0 min 2 min 0,0 UV-I 0 W/m 0,0 km/h (0 Bft)
28.12.2013 04:12 7,7 C 6,1 C 94 % 995,7 hPa 0,0 l/m 0 min 2 min 0,0 UV-I 0 W/m 0,0 km/h (0 Bft)
28.12.2013 04:14 7,7 C 6,1 C 94 % 995,7 hPa 0,0 l/m 0 min 2 min 0,0 UV-I 0 W/m 0,0 km/h (0 Bft)
28.12.2013 04:16 7,7 C 6,1 C 94 % 995,6 hPa 0,0 l/m 0 min 2 min 0,0 UV-I 0 W/m 0,0 km/h (0 Bft)
28.12.2013 04:18 7,7 C 6,1 C 94 % 995,7 hPa 0,0 l/m 0 min 2 min 0,0 UV-I 0 W/m 0,0 km/h (0 Bft)
28.12.2013 04:20 7,7 C 6,1 C 94 % 995,8 hPa 0,0 l/m 0 min 2 min 0,0 UV-I 0 W/m 0,0 km/h (0 Bft)
28.12.2013 04:22 7,7 C 6,1 C 94 % 995,8 hPa 0,0 l/m 0 min 2 min 0,0 UV-I 0 W/m 0,0 km/h (0 Bft)
28.12.2013 04:24 7,6 C 6,1 C 94 % 995,7 hPa 0,0 l/m 0 min 2 min 0,0 UV-I 0 W/m 0,0 km/h (0 Bft)
28.12.2013 04:26 7,6 C 6,1 C 95 % 995,7 hPa 0,2 l/m 0 min 2 min 0,0 UV-I 0 W/m 0,0 km/h (0 Bft)
28.12.2013 04:28 7,6 C 6,1 C 95 % 995,7 hPa 0,0 l/m 0 min 2 min 0,0 UV-I 0 W/m 0,0 km/h (0 Bft)
28.12.2013 04:30 7,6 C 6,1 C 95 % 995,6 hPa 0,0 l/m 0 min 2 min 0,0 UV-I 0 W/m 0,0 km/h (0 Bft)
28.12.2013 04:32 7,6 C 6,1 C 95 % 995,7 hPa 0,0 l/m 0 min 2 min 0,0 UV-I 0 W/m 0,0 km/h (0 Bft)
28.12.2013 04:34 7,6 C 6,1 C 95 % 995,8 hPa 0,0 l/m 0 min 2 min 0,0 UV-I 0 W/m 0,0 km/h (0 Bft)
28.12.2013 04:36 7,6 C 6,1 C 95 % 995,7 hPa 0,0 l/m 0 min 2 min 0,0 UV-I 0 W/m 0,0 km/h (0 Bft)
28.12.2013 04:38 7,6 C 6,1 C 95 % 995,7 hPa 0,0 l/m 0 min 2 min 0,0 UV-I 0 W/m 0,0 km/h (0 Bft)
28.12.2013 04:40 7,5 C 6,1 C 95 % 995,7 hPa 0,0 l/m 0 min 2 min 0,0 UV-I 0 W/m 0,0 km/h (0 Bft)
28.12.2013 04:42 7,5 C 6,1 C 95 % 995,8 hPa 0,0 l/m 0 min 2 min 0,0 UV-I 0 W/m 0,0 km/h (0 Bft)
28.12.2013 04:44 7,5 C 6,1 C 95 % 995,9 hPa 0,0 l/m 0 min 2 min 0,0 UV-I 0 W/m 0,0 km/h (0 Bft)
28.12.2013 04:46 7,5 C 6,1 C 95 % 995,9 hPa 0,0 l/m 0 min 2 min 0,0 UV-I 0 W/m 0,0 km/h (0 Bft)
28.12.2013 04:48 7,5 C 6,1 C 95 % 995,9 hPa 0,0 l/m 0 min 2 min 0,0 UV-I 0 W/m 0,0 km/h (0 Bft)
28.12.2013 04:50 7,5 C 6,1 C 95 % 995,9 hPa 0,2 l/m 0 min 2 min 0,0 UV-I 0 W/m 0,0 km/h (0 Bft)
28.12.2013 04:52 7,5 C 6,1 C 95 % 995,8 hPa 0,0 l/m 0 min 2 min 0,0 UV-I 0 W/m 0,0 km/h (0 Bft)
28.12.2013 04:54 7,5 C 6,1 C 95 % 995,8 hPa 0,0 l/m 0 min 2 min 0,0 UV-I 0 W/m 0,0 km/h (0 Bft)
28.12.2013 04:56 7,5 C 6,1 C 95 % 995,8 hPa 0,0 l/m 0 min 2 min 0,0 UV-I 0 W/m 0,0 km/h (0 Bft)
28.12.2013 04:58 7,5 C 6,1 C 95 % 995,9 hPa 0,0 l/m 0 min 2 min 0,0 UV-I 0 W/m 0,0 km/h (0 Bft)
28.12.2013 05:00 7,4 C 6,1 C 95 % 995,9 hPa 0,2 l/m 0 min 2 min 0,0 UV-I 0 W/m 0,0 km/h (0 Bft)
28.12.2013 05:02 7,4 C 6,1 C 95 % 995,8 hPa 0,0 l/m 0 min 2 min 0,0 UV-I 0 W/m 0,0 km/h (0 Bft)
28.12.2013 05:04 7,4 C 6,1 C 95 % 995,8 hPa 0,0 l/m 0 min 2 min 0,0 UV-I 0 W/m 0,0 km/h (0 Bft)
28.12.2013 05:06 7,4 C 6,1 C 95 % 995,7 hPa 0,0 l/m 0 min 2 min 0,0 UV-I 0 W/m 0,0 km/h (0 Bft)
28.12.2013 05:08 7,4 C 6,1 C 95 % 995,5 hPa 0,0 l/m 0 min 2 min 0,0 UV-I 0 W/m 0,0 km/h (0 Bft)
28.12.2013 05:10 7,4 C 6,1 C 95 % 995,6 hPa 0,0 l/m 0 min 2 min 0,0 UV-I 0 W/m 0,0 km/h (0 Bft)
28.12.2013 05:12 7,4 C 6,1 C 95 % 995,7 hPa 0,0 l/m 0 min 2 min 0,0 UV-I 0 W/m 0,0 km/h (0 Bft)
28.12.2013 05:14 7,4 C 6,1 C 95 % 995,8 hPa 0,0 l/m 0 min 2 min 0,0 UV-I 0 W/m 0,0 km/h (0 Bft)
28.12.2013 05:16 7,4 C 6,1 C 96 % 995,8 hPa 0,0 l/m 0 min 2 min 0,0 UV-I 0 W/m 0,0 km/h (0 Bft)
28.12.2013 05:18 7,4 C 6,1 C 96 % 995,9 hPa 0,2 l/m 0 min 2 min 0,0 UV-I 0 W/m 0,0 km/h (0 Bft)
28.12.2013 05:20 7,4 C 6,1 C 96 % 995,9 hPa 0,0 l/m 0 min 2 min 0,0 UV-I 0 W/m 0,0 km/h (0 Bft)
28.12.2013 05:22 7,4 C 6,1 C 96 % 995,8 hPa 0,0 l/m 0 min 2 min 0,0 UV-I 0 W/m 0,0 km/h (0 Bft)
28.12.2013 05:24 7,4 C 6,1 C 96 % 995,7 hPa 0,0 l/m 0 min 2 min 0,0 UV-I 0 W/m 0,0 km/h (0 Bft)
28.12.2013 05:26 7,4 C 6,1 C 96 % 995,7 hPa 0,0 l/m 0 min 2 min 0,0 UV-I 0 W/m 0,0 km/h (0 Bft)
28.12.2013 05:28 7,4 C 6,1 C 96 % 995,8 hPa 0,2 l/m 0 min 2 min 0,0 UV-I 0 W/m 0,0 km/h (0 Bft)
28.12.2013 05:30 7,4 C 6,1 C 96 % 995,8 hPa 0,0 l/m 0 min 2 min 0,0 UV-I 0 W/m 0,0 km/h (0 Bft)
28.12.2013 05:32 7,4 C 6,1 C 96 % 995,8 hPa 0,0 l/m 0 min 2 min 0,0 UV-I 0 W/m 0,0 km/h (0 Bft)
28.12.2013 05:34 7,4 C 6,1 C 96 % 995,8 hPa 0,0 l/m 0 min 2 min 0,0 UV-I 0 W/m 0,0 km/h (0 Bft)
28.12.2013 05:36 7,4 C 6,1 C 96 % 995,8 hPa 0,0 l/m 0 min 2 min 0,0 UV-I 0 W/m 0,0 km/h (0 Bft)
28.12.2013 05:38 7,4 C 6,1 C 96 % 995,9 hPa 0,2 l/m 0 min 2 min 0,0 UV-I 0 W/m 0,0 km/h (0 Bft)
28.12.2013 05:40 7,4 C 6,1 C 96 % 995,9 hPa 0,0 l/m 0 min 2 min 0,0 UV-I 0 W/m 0,0 km/h (0 Bft)
28.12.2013 05:42 7,3 C 6,1 C 96 % 996,0 hPa 0,0 l/m 0 min 2 min 0,0 UV-I 0 W/m 0,0 km/h (0 Bft)
28.12.2013 05:44 7,3 C 6,1 C 96 % 996,0 hPa 0,0 l/m 0 min 2 min 0,0 UV-I 0 W/m 0,0 km/h (0 Bft)
28.12.2013 05:46 7,3 C 6,1 C 96 % 996,1 hPa 0,0 l/m 0 min 2 min 0,0 UV-I 0 W/m 0,0 km/h (0 Bft)
28.12.2013 05:48 7,3 C 6,1 C 96 % 996,1 hPa 0,2 l/m 0 min 2 min 0,0 UV-I 0 W/m 0,0 km/h (0 Bft)
28.12.2013 05:50 7,3 C 6,1 C 96 % 996,2 hPa 0,0 l/m 0 min 2 min 0,0 UV-I 0 W/m 0,0 km/h (0 Bft)
28.12.2013 05:52 7,3 C 6,1 C 96 % 996,2 hPa 0,2 l/m 0 min 2 min 0,0 UV-I 0 W/m 0,0 km/h (0 Bft)
28.12.2013 05:54 7,3 C 6,1 C 96 % 996,3 hPa 0,0 l/m 0 min 2 min 0,0 UV-I 0 W/m 0,0 km/h (0 Bft)
28.12.2013 05:56 7,3 C 6,1 C 96 % 996,3 hPa 0,2 l/m 0 min 2 min 0,0 UV-I 0 W/m 0,0 km/h (0 Bft)
28.12.2013 05:58 7,3 C 6,1 C 96 % 996,4 hPa 0,0 l/m 0 min 2 min 0,0 UV-I 0 W/m 0,0 km/h (0 Bft)
28.12.2013 06:00 7,3 C 6,1 C 96 % 996,3 hPa 0,2 l/m 0 min 2 min 0,0 UV-I 0 W/m 0,0 km/h (0 Bft)
28.12.2013 06:02 7,3 C 6,1 C 96 % 996,4 hPa 0,0 l/m 0 min 2 min 0,0 UV-I 0 W/m 0,0 km/h (0 Bft)
28.12.2013 06:04 7,3 C 6,1 C 96 % 996,4 hPa 0,2 l/m 0 min 2 min 0,0 UV-I 0 W/m 0,0 km/h (0 Bft)
28.12.2013 06:06 7,3 C 6,1 C 96 % 996,4 hPa 0,0 l/m 0 min 2 min 0,0 UV-I 0 W/m 0,0 km/h (0 Bft)
28.12.2013 06:08 7,2 C 6,1 C 96 % 996,3 hPa 0,2 l/m 0 min 2 min 0,0 UV-I 0 W/m 0,0 km/h (0 Bft)
28.12.2013 06:10 7,2 C 6,1 C 96 % 996,4 hPa 0,2 l/m 0 min 2 min 0,0 UV-I 0 W/m 0,0 km/h (0 Bft)
28.12.2013 06:12 7,2 C 6,1 C 96 % 996,5 hPa 0,0 l/m 0 min 2 min 0,0 UV-I 0 W/m 0,0 km/h (0 Bft)
28.12.2013 06:14 7,2 C 6,1 C 96 % 996,4 hPa 0,0 l/m 0 min 2 min 0,0 UV-I 0 W/m 0,0 km/h (0 Bft)
28.12.2013 06:16 7,2 C 6,1 C 96 % 996,4 hPa 0,0 l/m 0 min 2 min 0,0 UV-I 0 W/m 0,0 km/h (0 Bft)
28.12.2013 06:18 7,2 C 6,1 C 96 % 996,4 hPa 0,2 l/m 0 min 2 min 0,0 UV-I 0 W/m 0,0 km/h (0 Bft)
28.12.2013 06:20 7,2 C 6,1 C 96 % 996,3 hPa 0,0 l/m 0 min 2 min 0,0 UV-I 0 W/m 0,0 km/h (0 Bft)
28.12.2013 06:22 7,2 C 6,1 C 96 % 996,3 hPa 0,0 l/m 0 min 2 min 0,0 UV-I 0 W/m 0,0 km/h (0 Bft)
28.12.2013 06:24 7,2 C 6,1 C 96 % 996,3 hPa 0,2 l/m 0 min 2 min 0,0 UV-I 0 W/m 0,0 km/h (0 Bft)
28.12.2013 06:26 7,2 C 6,1 C 96 % 996,3 hPa 0,0 l/m 0 min 2 min 0,0 UV-I 0 W/m 0,0 km/h (0 Bft)
28.12.2013 06:28 7,2 C 6,1 C 96 % 996,3 hPa 0,0 l/m 0 min 2 min 0,0 UV-I 0 W/m 0,0 km/h (0 Bft)
28.12.2013 06:30 7,2 C 6,1 C 96 % 996,3 hPa 0,0 l/m 0 min 2 min 0,0 UV-I 0 W/m 0,0 km/h (0 Bft)
28.12.2013 06:32 7,2 C 6,1 C 96 % 996,3 hPa 0,2 l/m 0 min 2 min 0,0 UV-I 0 W/m 0,0 km/h (0 Bft)
28.12.2013 06:34 7,2 C 5,6 C 96 % 996,3 hPa 0,0 l/m 0 min 2 min 0,0 UV-I 0 W/m 0,0 km/h (0 Bft)
28.12.2013 06:36 7,2 C 5,6 C 96 % 996,4 hPa 0,2 l/m 0 min 2 min 0,0 UV-I 0 W/m 0,0 km/h (0 Bft)
28.12.2013 06:38 7,2 C 5,6 C 96 % 996,4 hPa 0,0 l/m 0 min 2 min 0,0 UV-I 0 W/m 0,0 km/h (0 Bft)
28.12.2013 06:40 7,2 C 5,6 C 96 % 996,5 hPa 0,0 l/m 0 min 2 min 0,0 UV-I 0 W/m 0,0 km/h (0 Bft)
28.12.2013 06:42 7,2 C 5,6 C 96 % 996,6 hPa 0,0 l/m 0 min 2 min 0,0 UV-I 0 W/m 0,0 km/h (0 Bft)
28.12.2013 06:44 7,1 C 5,6 C 96 % 996,6 hPa 0,0 l/m 0 min 2 min 0,0 UV-I 0 W/m 0,0 km/h (0 Bft)
28.12.2013 06:46 7,1 C 5,6 C 96 % 996,7 hPa 0,2 l/m 0 min 2 min 0,0 UV-I 0 W/m 0,0 km/h (0 Bft)
28.12.2013 06:48 7,1 C 5,6 C 96 % 996,7 hPa 0,0 l/m 0 min 2 min 0,0 UV-I 0 W/m 5,1 km/h (1 Bft)
28.12.2013 06:50 7,1 C 5,6 C 96 % 996,7 hPa 0,0 l/m 0 min 2 min 0,0 UV-I 0 W/m 0,0 km/h (0 Bft)
28.12.2013 06:52 7,1 C 5,6 C 96 % 996,8 hPa 0,2 l/m 0 min 2 min 0,0 UV-I 0 W/m 0,0 km/h (0 Bft)
28.12.2013 06:54 7,1 C 5,6 C 96 % 996,9 hPa 0,0 l/m 0 min 2 min 0,0 UV-I 0 W/m 0,0 km/h (0 Bft)
28.12.2013 06:56 7,1 C 5,6 C 96 % 996,7 hPa 0,0 l/m 0 min 2 min 0,0 UV-I 0 W/m 0,0 km/h (0 Bft)
28.12.2013 06:58 7,1 C 6,1 C 96 % 996,8 hPa 0,0 l/m 0 min 2 min 0,0 UV-I 0 W/m 0,0 km/h (0 Bft)
28.12.2013 07:00 7,1 C 6,1 C 96 % 996,9 hPa 0,2 l/m 0 min 2 min 0,0 UV-I 0 W/m 0,0 km/h (0 Bft)
28.12.2013 07:02 7,1 C 6,1 C 96 % 996,9 hPa 0,0 l/m 0 min 2 min 0,0 UV-I 0 W/m 0,0 km/h (0 Bft)
28.12.2013 07:04 7,1 C 6,1 C 96 % 996,9 hPa 0,0 l/m 0 min 2 min 0,0 UV-I 0 W/m 0,0 km/h (0 Bft)
28.12.2013 07:06 7,1 C 5,6 C 96 % 997,0 hPa 0,2 l/m 0 min 2 min 0,0 UV-I 0 W/m 0,0 km/h (0 Bft)
28.12.2013 07:08 7,1 C 6,1 C 96 % 997,0 hPa 0,0 l/m 0 min 2 min 0,0 UV-I 0 W/m 0,0 km/h (0 Bft)
28.12.2013 07:10 7,1 C 6,1 C 96 % 997,1 hPa 0,0 l/m 0 min 2 min 0,0 UV-I 0 W/m 0,0 km/h (0 Bft)
28.12.2013 07:12 7,1 C 6,1 C 96 % 997,1 hPa 0,0 l/m 0 min 2 min 0,0 UV-I 0 W/m 0,0 km/h (0 Bft)
28.12.2013 07:14 7,1 C 6,1 C 96 % 997,0 hPa 0,2 l/m 0 min 2 min 0,0 UV-I 0 W/m 0,0 km/h (0 Bft)
28.12.2013 07:16 7,1 C 6,1 C 96 % 997,0 hPa 0,0 l/m 0 min 2 min 0,0 UV-I 0 W/m 0,0 km/h (0 Bft)
28.12.2013 07:18 7,1 C 5,6 C 96 % 997,0 hPa 0,2 l/m 0 min 2 min 0,0 UV-I 0 W/m 0,0 km/h (0 Bft)
28.12.2013 07:20 7,1 C 5,6 C 96 % 997,0 hPa 0,0 l/m 0 min 2 min 0,0 UV-I 0 W/m 0,0 km/h (0 Bft)
28.12.2013 07:22 7,1 C 5,6 C 96 % 997,0 hPa 0,0 l/m 0 min 2 min 0,0 UV-I 0 W/m 0,0 km/h (0 Bft)
28.12.2013 07:24 7,1 C 5,6 C 96 % 997,0 hPa 0,0 l/m 0 min 2 min 0,0 UV-I 0 W/m 0,0 km/h (0 Bft)
28.12.2013 07:26 7,0 C 5,6 C 96 % 997,1 hPa 0,2 l/m 0 min 2 min 0,0 UV-I 0 W/m 0,0 km/h (0 Bft)
28.12.2013 07:28 7,0 C 5,6 C 97 % 997,0 hPa 0,0 l/m 0 min 2 min 0,0 UV-I 0 W/m 0,0 km/h (0 Bft)
28.12.2013 07:30 7,0 C 5,6 C 97 % 997,1 hPa 0,2 l/m 0 min 2 min 0,0 UV-I 0 W/m 0,0 km/h (0 Bft)
28.12.2013 07:32 7,0 C 5,6 C 97 % 997,1 hPa 0,0 l/m 0 min 2 min 0,0 UV-I 0 W/m 0,0 km/h (0 Bft)
28.12.2013 07:34 7,0 C 5,6 C 97 % 997,1 hPa 0,0 l/m 0 min 2 min 0,0 UV-I 0 W/m 0,0 km/h (0 Bft)
28.12.2013 07:36 7,0 C 5,6 C 97 % 997,1 hPa 0,0 l/m 0 min 2 min 0,0 UV-I 0 W/m 0,0 km/h (0 Bft)
28.12.2013 07:38 7,0 C 5,6 C 97 % 997,0 hPa 0,2 l/m 0 min 2 min 0,0 UV-I 0 W/m 0,0 km/h (0 Bft)
28.12.2013 07:40 7,0 C 5,6 C 97 % 997,0 hPa 0,0 l/m 0 min 2 min 0,0 UV-I 0 W/m 0,0 km/h (0 Bft)
28.12.2013 07:42 6,9 C 5,6 C 97 % 997,0 hPa 0,2 l/m 0 min 2 min 0,0 UV-I 0 W/m 5,1 km/h (1 Bft)
28.12.2013 07:44 6,9 C 5,6 C 97 % 997,0 hPa 0,0 l/m 0 min 2 min 0,0 UV-I 0 W/m 0,0 km/h (0 Bft)
28.12.2013 07:46 6,9 C 5,6 C 97 % 997,0 hPa 0,0 l/m 0 min 2 min 0,0 UV-I 0 W/m 7,7 km/h (2 Bft)
28.12.2013 07:48 6,9 C 5,6 C 97 % 997,1 hPa 0,0 l/m 0 min 2 min 0,0 UV-I 0 W/m 0,0 km/h (0 Bft)
28.12.2013 07:50 6,9 C 5,6 C 97 % 997,1 hPa 0,0 l/m 0 min 2 min 0,0 UV-I 0 W/m 0,0 km/h (0 Bft)
28.12.2013 07:52 6,9 C 5,6 C 97 % 997,1 hPa 0,2 l/m 0 min 2 min 0,0 UV-I 0 W/m 0,0 km/h (0 Bft)
28.12.2013 07:54 6,8 C 5,6 C 97 % 997,2 hPa 0,0 l/m 0 min 2 min 0,0 UV-I 0 W/m 0,0 km/h (0 Bft)
28.12.2013 07:56 6,8 C 5,6 C 97 % 997,2 hPa 0,0 l/m 0 min 2 min 0,0 UV-I 0 W/m 0,0 km/h (0 Bft)
28.12.2013 07:58 6,8 C 5,6 C 97 % 997,2 hPa 0,0 l/m 0 min 2 min 0,0 UV-I 0 W/m 0,0 km/h (0 Bft)
28.12.2013 08:00 6,8 C 5,6 C 97 % 997,3 hPa 0,0 l/m 0 min 2 min 0,0 UV-I 0 W/m 0,0 km/h (0 Bft)
28.12.2013 08:02 6,8 C 5,6 C 97 % 997,3 hPa 0,2 l/m 0 min 2 min 0,0 UV-I 0 W/m 0,0 km/h (0 Bft)
28.12.2013 08:04 6,7 C 5,6 C 97 % 997,4 hPa 0,0 l/m 0 min 2 min 0,0 UV-I 0 W/m 0,0 km/h (0 Bft)
28.12.2013 08:06 6,7 C 5,6 C 97 % 997,4 hPa 0,0 l/m 0 min 2 min 0,0 UV-I 0 W/m 0,0 km/h (0 Bft)
28.12.2013 08:08 6,7 C 5,0 C 97 % 997,4 hPa 0,0 l/m 0 min 2 min 0,0 UV-I 0 W/m 0,0 km/h (0 Bft)
28.12.2013 08:10 6,7 C 5,0 C 97 % 997,4 hPa 0,0 l/m 0 min 2 min 0,0 UV-I 0 W/m 0,0 km/h (0 Bft)
28.12.2013 08:12 6,7 C 5,0 C 97 % 997,5 hPa 0,0 l/m 0 min 2 min 0,0 UV-I 0 W/m 0,0 km/h (0 Bft)
28.12.2013 08:14 6,7 C 5,0 C 97 % 997,6 hPa 0,0 l/m 0 min 2 min 0,0 UV-I 0 W/m 0,0 km/h (0 Bft)
28.12.2013 08:16 6,6 C 5,0 C 97 % 997,6 hPa 0,0 l/m 0 min 2 min 0,0 UV-I 0 W/m 2,6 km/h (1 Bft)
28.12.2013 08:18 6,6 C 5,0 C 97 % 997,7 hPa 0,2 l/m 0 min 2 min 0,0 UV-I 0 W/m 0,0 km/h (0 Bft)
28.12.2013 08:20 6,6 C 5,0 C 97 % 997,7 hPa 0,0 l/m 0 min 2 min 0,0 UV-I 0 W/m 0,0 km/h (0 Bft)
28.12.2013 08:22 6,6 C 5,0 C 97 % 997,8 hPa 0,0 l/m 0 min 2 min 0,0 UV-I 0 W/m 0,0 km/h (0 Bft)
28.12.2013 08:24 6,5 C 5,0 C 97 % 997,8 hPa 0,0 l/m 0 min 2 min 0,0 UV-I 0 W/m 0,0 km/h (0 Bft)
28.12.2013 08:26 6,5 C 5,0 C 97 % 997,9 hPa 0,0 l/m 0 min 2 min 0,0 UV-I 0 W/m 0,0 km/h (0 Bft)
28.12.2013 08:28 6,5 C 5,0 C 97 % 997,9 hPa 0,2 l/m 0 min 2 min 0,0 UV-I 0 W/m 0,0 km/h (0 Bft)
28.12.2013 08:30 6,4 C 5,0 C 97 % 998,1 hPa 0,0 l/m 0 min 2 min 0,0 UV-I 0 W/m 0,0 km/h (0 Bft)
28.12.2013 08:32 6,4 C 5,0 C 97 % 998,2 hPa 0,0 l/m 0 min 2 min 0,0 UV-I 0 W/m 0,0 km/h (0 Bft)
28.12.2013 08:34 6,4 C 5,0 C 97 % 998,0 hPa 0,0 l/m 0 min 2 min 0,0 UV-I 0 W/m 0,0 km/h (0 Bft)
28.12.2013 08:36 6,4 C 5,0 C 97 % 998,0 hPa 0,0 l/m 0 min 2 min 0,0 UV-I 0 W/m 0,0 km/h (0 Bft)
28.12.2013 08:38 6,4 C 5,0 C 97 % 998,0 hPa 0,2 l/m 0 min 2 min 0,0 UV-I 0 W/m 0,0 km/h (0 Bft)
28.12.2013 08:40 6,4 C 5,0 C 97 % 998,0 hPa 0,0 l/m 0 min 2 min 0,0 UV-I 0 W/m 0,0 km/h (0 Bft)
28.12.2013 08:42 6,4 C 5,0 C 97 % 998,0 hPa 0,2 l/m 0 min 2 min 0,0 UV-I 0 W/m 0,0 km/h (0 Bft)
28.12.2013 08:44 6,4 C 5,0 C 97 % 997,8 hPa 0,0 l/m 0 min 2 min 0,0 UV-I 0 W/m 0,0 km/h (0 Bft)
28.12.2013 08:46 6,4 C 5,0 C 97 % 997,9 hPa 0,0 l/m 0 min 2 min 0,0 UV-I 0 W/m 0,0 km/h (0 Bft)
28.12.2013 08:48 6,4 C 5,0 C 97 % 997,9 hPa 0,0 l/m 0 min 2 min 0,0 UV-I 0 W/m 0,0 km/h (0 Bft)
28.12.2013 08:50 6,4 C 5,0 C 97 % 998,0 hPa 0,2 l/m 0 min 2 min 0,0 UV-I 0 W/m 0,0 km/h (0 Bft)
28.12.2013 08:52 6,4 C 5,0 C 97 % 998,1 hPa 0,0 l/m 0 min 2 min 0,0 UV-I 0 W/m 0,0 km/h (0 Bft)
28.12.2013 08:54 6,4 C 5,0 C 97 % 998,2 hPa 0,0 l/m 0 min 2 min 0,0 UV-I 0 W/m 0,0 km/h (0 Bft)
28.12.2013 08:56 6,3 C 5,0 C 97 % 998,2 hPa 0,0 l/m 0 min 2 min 0,0 UV-I 0 W/m 0,0 km/h (0 Bft)
28.12.2013 08:58 6,3 C 5,0 C 97 % 998,3 hPa 0,0 l/m 0 min 2 min 0,0 UV-I 0 W/m 0,0 km/h (0 Bft)
28.12.2013 09:00 6,3 C 5,0 C 97 % 998,3 hPa 0,0 l/m 0 min 2 min 0,0 UV-I 0 W/m 0,0 km/h (0 Bft)
28.12.2013 09:02 6,3 C 5,0 C 97 % 998,4 hPa 0,2 l/m 0 min 2 min 0,0 UV-I 0 W/m 0,0 km/h (0 Bft)
28.12.2013 09:04 6,3 C 5,0 C 97 % 998,4 hPa 0,0 l/m 0 min 2 min 0,0 UV-I 0 W/m 0,0 km/h (0 Bft)
28.12.2013 09:06 6,3 C 5,0 C 97 % 998,4 hPa 0,0 l/m 0 min 2 min 0,0 UV-I 0 W/m 0,0 km/h (0 Bft)
28.12.2013 09:08 6,3 C 5,0 C 97 % 998,4 hPa 0,0 l/m 0 min 2 min 0,0 UV-I 0 W/m 0,0 km/h (0 Bft)
28.12.2013 09:10 6,3 C 5,0 C 97 % 998,5 hPa 0,0 l/m 0 min 2 min 0,0 UV-I 0 W/m 0,0 km/h (0 Bft)
28.12.2013 09:12 6,3 C 5,0 C 97 % 998,5 hPa 0,0 l/m 0 min 2 min 0,0 UV-I 0 W/m 0,0 km/h (0 Bft)
28.12.2013 09:14 6,3 C 5,0 C 97 % 998,4 hPa 0,0 l/m 0 min 2 min 0,0 UV-I 0 W/m 0,0 km/h (0 Bft)
28.12.2013 09:16 6,3 C 5,0 C 97 % 998,5 hPa 0,2 l/m 0 min 2 min 0,0 UV-I 0 W/m 0,0 km/h (0 Bft)
28.12.2013 09:18 6,3 C 5,0 C 97 % 998,6 hPa 0,0 l/m 0 min 2 min 0,0 UV-I 0 W/m 0,0 km/h (0 Bft)
28.12.2013 09:20 6,3 C 5,0 C 97 % 998,5 hPa 0,0 l/m 0 min 2 min 0,0 UV-I 5 W/m 0,0 km/h (0 Bft)
28.12.2013 09:22 6,3 C 5,0 C 97 % 998,5 hPa 0,2 l/m 0 min 2 min 0,0 UV-I 5 W/m 0,0 km/h (0 Bft)
28.12.2013 09:24 6,3 C 5,0 C 97 % 998,5 hPa 0,0 l/m 0 min 2 min 0,0 UV-I 7 W/m 0,0 km/h (0 Bft)
28.12.2013 09:26 6,3 C 5,0 C 97 % 998,4 hPa 0,0 l/m 0 min 2 min 0,0 UV-I 7 W/m 0,0 km/h (0 Bft)
28.12.2013 09:28 6,3 C 5,0 C 97 % 998,3 hPa 0,0 l/m 0 min 2 min 0,0 UV-I 9 W/m 0,0 km/h (0 Bft)
28.12.2013 09:30 6,3 C 5,0 C 97 % 998,3 hPa 0,0 l/m 0 min 2 min 0,0 UV-I 9 W/m 0,0 km/h (0 Bft)
28.12.2013 09:32 6,3 C 5,0 C 97 % 998,5 hPa 0,0 l/m 0 min 2 min 0,0 UV-I 11 W/m 0,0 km/h (0 Bft)
28.12.2013 09:34 6,3 C 5,0 C 97 % 998,5 hPa 0,0 l/m 0 min 2 min 0,0 UV-I 11 W/m 0,0 km/h (0 Bft)
28.12.2013 09:36 6,3 C 5,0 C 97 % 998,5 hPa 0,2 l/m 0 min 2 min 0,0 UV-I 11 W/m 0,0 km/h (0 Bft)
28.12.2013 09:38 6,3 C 5,0 C 97 % 998,6 hPa 0,0 l/m 0 min 2 min 0,0 UV-I 11 W/m 0,0 km/h (0 Bft)
28.12.2013 09:40 6,3 C 5,0 C 97 % 998,7 hPa 0,0 l/m 0 min 0 min 0,0 UV-I 14 W/m 0,0 km/h (0 Bft)
28.12.2013 09:42 6,3 C 5,0 C 97 % 998,8 hPa 0,0 l/m 0 min 2 min 0,0 UV-I 14 W/m 0,0 km/h (0 Bft)
28.12.2013 09:44 6,3 C 5,0 C 97 % 998,9 hPa 0,0 l/m 0 min 2 min 0,0 UV-I 18 W/m 0,0 km/h (0 Bft)
28.12.2013 09:46 6,3 C 5,0 C 97 % 998,8 hPa 0,0 l/m 0 min 0 min 0,0 UV-I 19 W/m 0,0 km/h (0 Bft)
28.12.2013 09:48 6,3 C 5,0 C 97 % 999,0 hPa 0,0 l/m 0 min 2 min 0,0 UV-I 19 W/m 0,0 km/h (0 Bft)
28.12.2013 09:50 6,3 C 5,0 C 97 % 999,1 hPa 0,0 l/m 0 min 0 min 0,0 UV-I 23 W/m 2,6 km/h (1 Bft)
28.12.2013 09:52 6,3 C 5,0 C 97 % 999,2 hPa 0,0 l/m 0 min 0 min 0,0 UV-I 25 W/m 0,0 km/h (0 Bft)
28.12.2013 09:54 6,3 C 5,6 C 97 % 999,2 hPa 0,0 l/m 0 min 0 min 0,0 UV-I 25 W/m 0,0 km/h (0 Bft)
28.12.2013 09:56 6,3 C 5,6 C 97 % 999,2 hPa 0,0 l/m 0 min 0 min 0,0 UV-I 21 W/m 0,0 km/h (0 Bft)
28.12.2013 09:58 6,3 C 5,6 C 97 % 999,2 hPa 0,0 l/m 0 min 0 min 0,0 UV-I 19 W/m 0,0 km/h (0 Bft)
28.12.2013 10:00 6,3 C 5,6 C 97 % 999,2 hPa 0,0 l/m 0 min 2 min 0,0 UV-I 19 W/m 0,0 km/h (0 Bft)
28.12.2013 10:02 6,3 C 5,6 C 97 % 999,1 hPa 0,0 l/m 0 min 2 min 0,0 UV-I 28 W/m 0,0 km/h (0 Bft)
28.12.2013 10:04 6,3 C 5,6 C 97 % 999,1 hPa 0,0 l/m 0 min 0 min 0,0 UV-I 30 W/m 0,0 km/h (0 Bft)
28.12.2013 10:06 6,3 C 5,6 C 97 % 999,2 hPa 0,0 l/m 0 min 0 min 0,0 UV-I 26 W/m 0,0 km/h (0 Bft)
28.12.2013 10:08 6,4 C 5,6 C 97 % 999,1 hPa 0,0 l/m 0 min 0 min 0,0 UV-I 28 W/m 5,1 km/h (1 Bft)
28.12.2013 10:10 6,4 C 5,6 C 97 % 999,2 hPa 0,0 l/m 0 min 0 min 0,0 UV-I 28 W/m 0,0 km/h (0 Bft)
28.12.2013 10:12 6,4 C 5,6 C 97 % 999,3 hPa 0,0 l/m 0 min 0 min 0,0 UV-I 26 W/m 0,0 km/h (0 Bft)
28.12.2013 10:14 6,4 C 5,6 C 97 % 999,3 hPa 0,0 l/m 0 min 0 min 0,0 UV-I 30 W/m 0,0 km/h (0 Bft)
28.12.2013 10:16 6,4 C 5,6 C 97 % 999,3 hPa 0,0 l/m 0 min 0 min 0,0 UV-I 26 W/m 0,0 km/h (0 Bft)
28.12.2013 10:18 6,4 C 5,6 C 97 % 999,4 hPa 0,0 l/m 0 min 0 min 0,0 UV-I 23 W/m 0,0 km/h (0 Bft)
28.12.2013 10:20 6,4 C 5,6 C 97 % 999,5 hPa 0,0 l/m 0 min 0 min 0,0 UV-I 25 W/m 0,0 km/h (0 Bft)
28.12.2013 10:22 6,4 C 5,6 C 97 % 999,5 hPa 0,0 l/m 0 min 0 min 0,0 UV-I 30 W/m 0,0 km/h (0 Bft)
28.12.2013 10:24 6,4 C 5,6 C 97 % 999,6 hPa 0,0 l/m 0 min 0 min 0,0 UV-I 33 W/m 0,0 km/h (0 Bft)
28.12.2013 10:26 6,4 C 5,6 C 97 % 999,8 hPa 0,0 l/m 0 min 0 min 0,0 UV-I 32 W/m 0,0 km/h (0 Bft)
28.12.2013 10:28 6,4 C 5,6 C 97 % 999,7 hPa 0,0 l/m 0 min 0 min 0,0 UV-I 33 W/m 0,0 km/h (0 Bft)
28.12.2013 10:30 6,5 C 5,6 C 97 % 999,7 hPa 0,0 l/m 0 min 0 min 0,0 UV-I 37 W/m 0,0 km/h (0 Bft)
28.12.2013 10:32 6,5 C 5,6 C 97 % 999,7 hPa 0,0 l/m 0 min 0 min 0,0 UV-I 39 W/m 0,0 km/h (0 Bft)
28.12.2013 10:34 6,5 C 5,6 C 97 % 999,7 hPa 0,0 l/m 0 min 0 min 0,0 UV-I 37 W/m 0,0 km/h (0 Bft)
28.12.2013 10:36 6,5 C 5,6 C 97 % 999,7 hPa 0,0 l/m 0 min 0 min 0,0 UV-I 39 W/m 0,0 km/h (0 Bft)
28.12.2013 10:38 6,5 C 5,6 C 97 % 999,8 hPa 0,0 l/m 0 min 2 min 0,0 UV-I 40 W/m 0,0 km/h (0 Bft)
28.12.2013 10:40 6,6 C 5,6 C 97 % 999,9 hPa 0,0 l/m 0 min 0 min 0,0 UV-I 44 W/m 0,0 km/h (0 Bft)
28.12.2013 10:42 6,6 C 5,6 C 97 % 999,9 hPa 0,0 l/m 0 min 0 min 0,0 UV-I 46 W/m 0,0 km/h (0 Bft)
28.12.2013 10:44 6,6 C 5,6 C 97 % 999,9 hPa 0,0 l/m 0 min 0 min 0,0 UV-I 47 W/m 0,0 km/h (0 Bft)
28.12.2013 10:46 6,6 C 5,6 C 97 % 999,9 hPa 0,0 l/m 0 min 0 min 0,0 UV-I 46 W/m 0,0 km/h (0 Bft)
28.12.2013 10:48 6,6 C 5,6 C 97 % 999,9 hPa 0,0 l/m 0 min 0 min 0,0 UV-I 44 W/m 0,0 km/h (0 Bft)
28.12.2013 10:50 6,6 C 5,6 C 97 % 999,9 hPa 0,0 l/m 0 min 0 min 0,0 UV-I 44 W/m 0,0 km/h (0 Bft)
28.12.2013 10:52 6,6 C 5,6 C 97 % 999,9 hPa 0,0 l/m 0 min 0 min 0,0 UV-I 47 W/m 0,0 km/h (0 Bft)
28.12.2013 10:54 6,6 C 5,6 C 97 % 999,9 hPa 0,0 l/m 0 min 0 min 0,0 UV-I 53 W/m 0,0 km/h (0 Bft)
28.12.2013 10:56 6,6 C 5,6 C 98 % 999,9 hPa 0,0 l/m 0 min 0 min 0,0 UV-I 58 W/m 0,0 km/h (0 Bft)
28.12.2013 10:58 6,7 C 5,6 C 98 % 999,8 hPa 0,0 l/m 0 min 0 min 0,0 UV-I 62 W/m 0,0 km/h (0 Bft)
28.12.2013 11:00 6,7 C 5,6 C 97 % 999,9 hPa 0,0 l/m 0 min 0 min 0,0 UV-I 63 W/m 0,0 km/h (0 Bft)
28.12.2013 11:02 6,7 C 5,6 C 97 % 999,9 hPa 0,0 l/m 0 min 0 min 0,0 UV-I 65 W/m 0,0 km/h (0 Bft)
28.12.2013 11:04 6,7 C 6,1 C 97 % 1000,0 hPa 0,0 l/m 0 min 0 min 0,0 UV-I 65 W/m 0,0 km/h (0 Bft)
28.12.2013 11:06 6,7 C 6,1 C 97 % 1000,1 hPa 0,0 l/m 0 min 0 min 0,0 UV-I 63 W/m 0,0 km/h (0 Bft)
28.12.2013 11:08 6,7 C 6,1 C 97 % 1000,0 hPa 0,0 l/m 0 min 0 min 0,0 UV-I 62 W/m 2,6 km/h (1 Bft)
28.12.2013 11:10 6,7 C 5,6 C 98 % 1000,1 hPa 0,0 l/m 0 min 0 min 0,0 UV-I 60 W/m 0,0 km/h (0 Bft)
28.12.2013 11:12 6,7 C 6,1 C 98 % 1000,0 hPa 0,0 l/m 0 min 0 min 0,0 UV-I 60 W/m 0,0 km/h (0 Bft)
28.12.2013 11:14 6,7 C 6,1 C 98 % 1000,0 hPa 0,0 l/m 0 min 0 min 0,0 UV-I 60 W/m 0,0 km/h (0 Bft)
28.12.2013 11:16 6,8 C 6,1 C 98 % 999,9 hPa 0,0 l/m 0 min 0 min 0,0 UV-I 56 W/m 0,0 km/h (0 Bft)
28.12.2013 11:18 6,8 C 6,1 C 98 % 999,8 hPa 0,0 l/m 0 min 0 min 0,0 UV-I 54 W/m 0,0 km/h (0 Bft)
28.12.2013 11:20 6,8 C 6,1 C 98 % 999,9 hPa 0,0 l/m 0 min 0 min 0,0 UV-I 58 W/m 0,0 km/h (0 Bft)
28.12.2013 11:22 6,8 C 6,1 C 98 % 999,9 hPa 0,0 l/m 0 min 0 min 0,0 UV-I 62 W/m 0,0 km/h (0 Bft)
28.12.2013 11:24 6,8 C 6,1 C 98 % 999,9 hPa 0,0 l/m 0 min 0 min 0,0 UV-I 67 W/m 0,0 km/h (0 Bft)
28.12.2013 11:26 6,8 C 6,1 C 98 % 1000,0 hPa 0,0 l/m 0 min 0 min 0,0 UV-I 67 W/m 0,0 km/h (0 Bft)
28.12.2013 11:28 6,8 C 6,1 C 98 % 1000,0 hPa 0,0 l/m 0 min 0 min 0,0 UV-I 67 W/m 0,0 km/h (0 Bft)
28.12.2013 11:30 6,8 C 6,1 C 98 % 1000,0 hPa 0,0 l/m 0 min 0 min 0,0 UV-I 76 W/m 5,1 km/h (1 Bft)
28.12.2013 11:32 6,8 C 6,1 C 98 % 999,9 hPa 0,0 l/m 0 min 0 min 0,0 UV-I 74 W/m 0,0 km/h (0 Bft)
28.12.2013 11:34 6,9 C 6,1 C 98 % 999,9 hPa 0,0 l/m 0 min 0 min 0,0 UV-I 74 W/m 0,0 km/h (0 Bft)
28.12.2013 11:36 6,9 C 6,1 C 98 % 1000,0 hPa 0,0 l/m 0 min 0 min 0,0 UV-I 74 W/m 0,0 km/h (0 Bft)
28.12.2013 11:38 6,9 C 6,1 C 98 % 999,9 hPa 0,0 l/m 0 min 0 min 0,0 UV-I 77 W/m 0,0 km/h (0 Bft)
28.12.2013 11:40 7,0 C 6,1 C 98 % 999,8 hPa 0,0 l/m 0 min 0 min 0,0 UV-I 88 W/m 0,0 km/h (0 Bft)
28.12.2013 11:42 7,0 C 6,1 C 98 % 999,9 hPa 0,0 l/m 0 min 0 min 0,0 UV-I 91 W/m 0,0 km/h (0 Bft)
28.12.2013 11:44 7,0 C 6,1 C 98 % 999,9 hPa 0,0 l/m 0 min 0 min 0,0 UV-I 90 W/m 5,1 km/h (1 Bft)
28.12.2013 11:46 7,1 C 6,1 C 98 % 1000,0 hPa 0,0 l/m 0 min 0 min 0,0 UV-I 91 W/m 0,0 km/h (0 Bft)
28.12.2013 11:48 7,1 C 6,1 C 98 % 1000,1 hPa 0,0 l/m 0 min 0 min 0,0 UV-I 95 W/m 5,1 km/h (1 Bft)
28.12.2013 11:50 7,1 C 6,1 C 98 % 1000,2 hPa 0,0 l/m 0 min 0 min 0,0 UV-I 100 W/m 10,3 km/h (2 Bft)
28.12.2013 11:52 7,1 C 6,1 C 98 % 1000,2 hPa 0,0 l/m 0 min 0 min 0,0 UV-I 90 W/m 0,0 km/h (0 Bft)
28.12.2013 11:54 7,1 C 6,1 C 98 % 1000,2 hPa 0,0 l/m 0 min 0 min 0,0 UV-I 72 W/m 2,6 km/h (1 Bft)
28.12.2013 11:56 7,1 C 6,1 C 98 % 1000,3 hPa 0,0 l/m 0 min 0 min 0,0 UV-I 74 W/m 0,0 km/h (0 Bft)
28.12.2013 11:58 7,1 C 6,1 C 98 % 1000,3 hPa 0,0 l/m 0 min 0 min 0,0 UV-I 77 W/m 0,0 km/h (0 Bft)
28.12.2013 12:00 7,1 C 6,1 C 98 % 1000,4 hPa 0,0 l/m 0 min 0 min 0,0 UV-I 72 W/m 0,0 km/h (0 Bft)
28.12.2013 12:02 7,1 C 6,1 C 98 % 1000,4 hPa 0,0 l/m 0 min 0 min 0,0 UV-I 70 W/m 0,0 km/h (0 Bft)
28.12.2013 12:04 7,1 C 6,1 C 98 % 1000,3 hPa 0,0 l/m 0 min 0 min 0,0 UV-I 77 W/m 0,0 km/h (0 Bft)
28.12.2013 12:06 7,1 C 6,1 C 98 % 1000,3 hPa 0,0 l/m 0 min 0 min 0,0 UV-I 84 W/m 0,0 km/h (0 Bft)
28.12.2013 12:08 7,1 C 6,1 C 98 % 1000,3 hPa 0,0 l/m 0 min 0 min 0,0 UV-I 88 W/m 0,0 km/h (0 Bft)
28.12.2013 12:10 7,1 C 6,1 C 98 % 1000,3 hPa 0,0 l/m 0 min 0 min 0,0 UV-I 90 W/m 0,0 km/h (0 Bft)
28.12.2013 12:12 7,1 C 6,1 C 98 % 1000,3 hPa 0,0 l/m 0 min 0 min 0,0 UV-I 93 W/m 5,1 km/h (1 Bft)
28.12.2013 12:14 7,1 C 6,1 C 98 % 1000,4 hPa 0,0 l/m 0 min 0 min 0,0 UV-I 95 W/m 5,1 km/h (1 Bft)
28.12.2013 12:16 7,1 C 6,1 C 98 % 1000,4 hPa 0,0 l/m 0 min 0 min 0,0 UV-I 91 W/m 0,0 km/h (0 Bft)
28.12.2013 12:18 7,2 C 6,1 C 98 % 1000,5 hPa 0,0 l/m 0 min 0 min 0,0 UV-I 100 W/m 7,7 km/h (2 Bft)
28.12.2013 12:20 7,2 C 6,1 C 98 % 1000,5 hPa 0,0 l/m 0 min 0 min 0,0 UV-I 100 W/m 0,0 km/h (0 Bft)
28.12.2013 12:22 7,2 C 6,1 C 98 % 1000,4 hPa 0,0 l/m 0 min 0 min 0,0 UV-I 97 W/m 10,3 km/h (2 Bft)
28.12.2013 12:24 7,2 C 6,1 C 98 % 1000,5 hPa 0,0 l/m 0 min 0 min 0,0 UV-I 93 W/m 2,6 km/h (1 Bft)
28.12.2013 12:26 7,2 C 6,1 C 98 % 1000,5 hPa 0,0 l/m 0 min 0 min 0,0 UV-I 98 W/m 7,7 km/h (2 Bft)
28.12.2013 12:28 7,2 C 6,1 C 98 % 1000,5 hPa 0,0 l/m 0 min 0 min 0,0 UV-I 120 W/m 7,7 km/h (2 Bft)
28.12.2013 12:30 7,2 C 6,1 C 98 % 1000,5 hPa 0,0 l/m 0 min 0 min 0,0 UV-I 135 W/m 2,6 km/h (1 Bft)
28.12.2013 12:32 7,3 C 6,1 C 98 % 1000,5 hPa 0,0 l/m 0 min 0 min 0,0 UV-I 130 W/m 0,0 km/h (0 Bft)
28.12.2013 12:34 7,3 C 6,1 C 98 % 1000,5 hPa 0,0 l/m 0 min 0 min 0,0 UV-I 132 W/m 10,3 km/h (2 Bft)
28.12.2013 12:36 7,4 C 6,7 C 98 % 1000,4 hPa 0,0 l/m 0 min 0 min 0,0 UV-I 130 W/m 0,0 km/h (0 Bft)
28.12.2013 12:38 7,4 C 6,7 C 98 % 1000,5 hPa 0,0 l/m 0 min 0 min 0,0 UV-I 118 W/m 0,0 km/h (0 Bft)
28.12.2013 12:40 7,4 C 6,7 C 98 % 1000,5 hPa 0,0 l/m 0 min 0 min 0,0 UV-I 141 W/m 2,6 km/h (1 Bft)
28.12.2013 12:42 7,5 C 6,7 C 98 % 1000,6 hPa 0,0 l/m 2 min 0 min 0,0 UV-I 153 W/m 7,7 km/h (2 Bft)
28.12.2013 12:44 7,5 C 6,7 C 98 % 1000,6 hPa 0,0 l/m 2 min 0 min 0,0 UV-I 156 W/m 2,6 km/h (1 Bft)
28.12.2013 12:46 7,5 C 6,7 C 97 % 1000,6 hPa 0,0 l/m 0 min 0 min 0,0 UV-I 111 W/m 7,7 km/h (2 Bft)
28.12.2013 12:48 7,5 C 6,1 C 97 % 1000,5 hPa 0,0 l/m 0 min 0 min 0,0 UV-I 128 W/m 7,7 km/h (2 Bft)
28.12.2013 12:50 7,6 C 6,1 C 97 % 1000,6 hPa 0,0 l/m 0 min 0 min 0,0 UV-I 132 W/m 5,1 km/h (1 Bft)
28.12.2013 12:52 7,6 C 6,1 C 97 % 1000,5 hPa 0,0 l/m 0 min 0 min 0,0 UV-I 88 W/m 7,7 km/h (2 Bft)
28.12.2013 12:54 7,6 C 6,1 C 97 % 1000,6 hPa 0,0 l/m 0 min 0 min 0,0 UV-I 125 W/m 7,7 km/h (2 Bft)
28.12.2013 12:56 7,6 C 6,1 C 97 % 1000,5 hPa 0,0 l/m 0 min 0 min 0,0 UV-I 125 W/m 2,6 km/h (1 Bft)
28.12.2013 12:58 7,6 C 6,1 C 97 % 1000,5 hPa 0,0 l/m 2 min 0 min 0,0 UV-I 202 W/m 12,9 km/h (3 Bft)
28.12.2013 13:00 7,7 C 6,1 C 97 % 1000,4 hPa 0,0 l/m 2 min 0 min 0,0 UV-I 206 W/m 5,1 km/h (1 Bft)
28.12.2013 13:02 7,7 C 6,1 C 96 % 1000,4 hPa 0,0 l/m 2 min 0 min 0,0 UV-I 225 W/m 12,9 km/h (3 Bft)
28.12.2013 13:04 7,8 C 6,1 C 96 % 1000,4 hPa 0,0 l/m 2 min 0 min 0,0 UV-I 192 W/m 0,0 km/h (0 Bft)
28.12.2013 13:06 7,9 C 6,7 C 96 % 1000,3 hPa 0,0 l/m 2 min 0 min 0,0 UV-I 214 W/m 5,1 km/h (1 Bft)
28.12.2013 13:08 7,9 C 6,7 C 96 % 1000,3 hPa 0,0 l/m 2 min 0 min 0,0 UV-I 202 W/m 10,3 km/h (2 Bft)
28.12.2013 13:10 7,9 C 6,7 C 96 % 1000,3 hPa 0,0 l/m 2 min 0 min 0,0 UV-I 207 W/m 0,0 km/h (0 Bft)
28.12.2013 13:12 8,0 C 6,7 C 95 % 1000,3 hPa 0,0 l/m 0 min 0 min 0,0 UV-I 111 W/m 2,6 km/h (1 Bft)
28.12.2013 13:14 8,0 C 6,1 C 95 % 1000,3 hPa 0,0 l/m 0 min 0 min 0,0 UV-I 102 W/m 2,6 km/h (1 Bft)
28.12.2013 13:16 8,0 C 6,1 C 94 % 1000,3 hPa 0,0 l/m 0 min 0 min 0,0 UV-I 95 W/m 0,0 km/h (0 Bft)
28.12.2013 13:18 7,9 C 6,1 C 94 % 1000,3 hPa 0,0 l/m 2 min 0 min 0,0 UV-I 207 W/m 0,0 km/h (0 Bft)
28.12.2013 13:20 8,0 C 6,1 C 94 % 1000,3 hPa 0,0 l/m 2 min 0 min 0,0 UV-I 211 W/m 0,0 km/h (0 Bft)
28.12.2013 13:22 8,1 C 6,7 C 94 % 1000,3 hPa 0,0 l/m 2 min 0 min 0,0 UV-I 209 W/m 5,1 km/h (1 Bft)
28.12.2013 13:24 8,1 C 6,7 C 94 % 1000,2 hPa 0,0 l/m 2 min 0 min 0,0 UV-I 202 W/m 5,1 km/h (1 Bft)
28.12.2013 13:26 8,2 C 6,7 C 94 % 1000,1 hPa 0,0 l/m 2 min 0 min 0,0 UV-I 206 W/m 10,3 km/h (2 Bft)
28.12.2013 13:28 8,2 C 6,7 C 94 % 1000,1 hPa 0,0 l/m 0 min 0 min 0,0 UV-I 98 W/m 7,7 km/h (2 Bft)
28.12.2013 13:30 8,2 C 6,1 C 93 % 1000,1 hPa 0,0 l/m 0 min 0 min 0,0 UV-I 118 W/m 0,0 km/h (0 Bft)
28.12.2013 13:32 8,1 C 6,1 C 93 % 1000,1 hPa 0,0 l/m 2 min 0 min 0,0 UV-I 193 W/m 10,3 km/h (2 Bft)
28.12.2013 13:34 8,1 C 6,7 C 93 % 999,9 hPa 0,0 l/m 2 min 0 min 0,0 UV-I 206 W/m 2,6 km/h (1 Bft)
28.12.2013 13:36 8,2 C 6,7 C 93 % 999,8 hPa 0,0 l/m 2 min 0 min 0,0 UV-I 206 W/m 5,1 km/h (1 Bft)
28.12.2013 13:38 8,2 C 6,7 C 93 % 999,7 hPa 0,0 l/m 2 min 0 min 0,0 UV-I 176 W/m 2,6 km/h (1 Bft)
28.12.2013 13:40 8,2 C 6,7 C 93 % 999,7 hPa 0,0 l/m 2 min 0 min 0,0 UV-I 155 W/m 7,7 km/h (2 Bft)
28.12.2013 13:42 8,2 C 6,7 C 92 % 999,6 hPa 0,0 l/m 0 min 0 min 0,0 UV-I 102 W/m 2,6 km/h (1 Bft)
28.12.2013 13:44 8,2 C 6,1 C 92 % 999,9 hPa 0,0 l/m 0 min 0 min 0,0 UV-I 58 W/m 12,9 km/h (3 Bft)
28.12.2013 13:46 8,2 C 6,1 C 92 % 1000,1 hPa 0,0 l/m 0 min 0 min 0,0 UV-I 58 W/m 10,3 km/h (2 Bft)
28.12.2013 13:48 8,1 C 6,1 C 91 % 1000,3 hPa 0,0 l/m 0 min 0 min 0,0 UV-I 62 W/m 0,0 km/h (0 Bft)
28.12.2013 13:50 8,1 C 6,1 C 92 % 1000,3 hPa 0,0 l/m 0 min 0 min 0,0 UV-I 74 W/m 0,0 km/h (0 Bft)
28.12.2013 13:52 8,1 C 6,1 C 92 % 1000,3 hPa 0,0 l/m 0 min 0 min 0,0 UV-I 86 W/m 2,6 km/h (1 Bft)
28.12.2013 13:54 8,0 C 6,1 C 92 % 1000,3 hPa 0,0 l/m 0 min 0 min 0,0 UV-I 95 W/m 7,7 km/h (2 Bft)
28.12.2013 13:56 8,0 C 6,1 C 92 % 1000,3 hPa 0,0 l/m 0 min 0 min 0,0 UV-I 98 W/m 5,1 km/h (1 Bft)
28.12.2013 13:58 8,0 C 6,7 C 92 % 1000,3 hPa 0,0 l/m 0 min 0 min 0,0 UV-I 98 W/m 12,9 km/h (3 Bft)
28.12.2013 14:00 8,0 C 6,7 C 92 % 1000,5 hPa 0,0 l/m 0 min 0 min 0,0 UV-I 88 W/m 5,1 km/h (1 Bft)
28.12.2013 14:02 8,0 C 6,7 C 92 % 1000,5 hPa 0,0 l/m 0 min 0 min 0,0 UV-I 72 W/m 0,0 km/h (0 Bft)
28.12.2013 14:04 8,0 C 6,7 C 92 % 1000,5 hPa 0,0 l/m 0 min 0 min 0,0 UV-I 69 W/m 2,6 km/h (1 Bft)
28.12.2013 14:06 8,0 C 6,7 C 92 % 1000,5 hPa 0,0 l/m 0 min 0 min 0,0 UV-I 67 W/m 0,0 km/h (0 Bft)
28.12.2013 14:08 8,0 C 6,7 C 92 % 1000,4 hPa 0,0 l/m 0 min 0 min 0,0 UV-I 69 W/m 0,0 km/h (0 Bft)
28.12.2013 14:10 7,9 C 6,7 C 92 % 1000,4 hPa 0,0 l/m 0 min 0 min 0,0 UV-I 70 W/m 7,7 km/h (2 Bft)
28.12.2013 14:12 7,9 C 6,7 C 92 % 1000,4 hPa 0,0 l/m 0 min 0 min 0,0 UV-I 72 W/m 5,1 km/h (1 Bft)
28.12.2013 14:14 7,9 C 6,7 C 92 % 1000,4 hPa 0,0 l/m 0 min 0 min 0,0 UV-I 70 W/m 0,0 km/h (0 Bft)
28.12.2013 14:16 7,9 C 6,7 C 92 % 1000,4 hPa 0,0 l/m 0 min 0 min 0,0 UV-I 67 W/m 0,0 km/h (0 Bft)
28.12.2013 14:18 7,9 C 6,7 C 92 % 1000,4 hPa 0,0 l/m 0 min 0 min 0,0 UV-I 67 W/m 0,0 km/h (0 Bft)
28.12.2013 14:20 7,9 C 6,7 C 92 % 1000,4 hPa 0,0 l/m 0 min 0 min 0,0 UV-I 69 W/m 2,6 km/h (1 Bft)
28.12.2013 14:22 7,9 C 6,7 C 92 % 1000,5 hPa 0,0 l/m 0 min 0 min 0,0 UV-I 72 W/m 2,6 km/h (1 Bft)
28.12.2013 14:24 7,9 C 6,7 C 92 % 1000,5 hPa 0,0 l/m 0 min 0 min 0,0 UV-I 77 W/m 2,6 km/h (1 Bft)
28.12.2013 14:26 7,9 C 6,7 C 92 % 1000,6 hPa 0,0 l/m 0 min 0 min 0,0 UV-I 77 W/m 5,1 km/h (1 Bft)
28.12.2013 14:28 7,9 C 6,7 C 92 % 1000,6 hPa 0,0 l/m 0 min 0 min 0,0 UV-I 74 W/m 5,1 km/h (1 Bft)
28.12.2013 14:30 7,9 C 6,7 C 92 % 1000,6 hPa 0,0 l/m 0 min 0 min 0,0 UV-I 67 W/m 0,0 km/h (0 Bft)
28.12.2013 14:32 7,9 C 6,7 C 92 % 1000,6 hPa 0,0 l/m 0 min 0 min 0,0 UV-I 62 W/m 0,0 km/h (0 Bft)
28.12.2013 14:34 7,9 C 6,7 C 92 % 1000,6 hPa 0,0 l/m 0 min 0 min 0,0 UV-I 62 W/m 2,6 km/h (1 Bft)
28.12.2013 14:36 7,9 C 6,7 C 92 % 1000,6 hPa 0,0 l/m 0 min 0 min 0,0 UV-I 60 W/m 0,0 km/h (0 Bft)
28.12.2013 14:38 7,9 C 6,7 C 92 % 1000,6 hPa 0,0 l/m 0 min 0 min 0,0 UV-I 54 W/m 7,7 km/h (2 Bft)
28.12.2013 14:40 7,8 C 6,7 C 92 % 1000,5 hPa 0,0 l/m 0 min 0 min 0,0 UV-I 56 W/m 0,0 km/h (0 Bft)
28.12.2013 14:42 7,8 C 6,7 C 92 % 1000,6 hPa 0,0 l/m 0 min 0 min 0,0 UV-I 58 W/m 0,0 km/h (0 Bft)
28.12.2013 14:44 7,8 C 6,7 C 92 % 1000,5 hPa 0,0 l/m 0 min 0 min 0,0 UV-I 58 W/m 0,0 km/h (0 Bft)
28.12.2013 14:46 7,8 C 6,7 C 92 % 1000,5 hPa 0,0 l/m 0 min 0 min 0,0 UV-I 56 W/m 0,0 km/h (0 Bft)
28.12.2013 14:48 7,8 C 6,1 C 92 % 1000,5 hPa 0,0 l/m 0 min 0 min 0,0 UV-I 53 W/m 2,6 km/h (1 Bft)
28.12.2013 14:50 7,8 C 6,1 C 92 % 1000,5 hPa 0,0 l/m 0 min 0 min 0,0 UV-I 47 W/m 0,0 km/h (0 Bft)
28.12.2013 14:52 7,8 C 6,7 C 92 % 1000,6 hPa 0,0 l/m 0 min 0 min 0,0 UV-I 44 W/m 0,0 km/h (0 Bft)
28.12.2013 14:54 7,8 C 6,1 C 92 % 1000,6 hPa 0,0 l/m 0 min 0 min 0,0 UV-I 46 W/m 0,0 km/h (0 Bft)
28.12.2013 14:56 7,8 C 6,1 C 92 % 1000,6 hPa 0,0 l/m 0 min 0 min 0,0 UV-I 46 W/m 7,7 km/h (2 Bft)
28.12.2013 14:58 7,8 C 6,1 C 93 % 1000,6 hPa 0,0 l/m 0 min 0 min 0,0 UV-I 47 W/m 0,0 km/h (0 Bft)
28.12.2013 15:00 7,8 C 6,1 C 93 % 1000,5 hPa 0,0 l/m 0 min 0 min 0,0 UV-I 51 W/m 0,0 km/h (0 Bft)
28.12.2013 15:02 7,8 C 6,1 C 93 % 1000,5 hPa 0,0 l/m 0 min 0 min 0,0 UV-I 53 W/m 0,0 km/h (0 Bft)
28.12.2013 15:04 7,8 C 6,1 C 93 % 1000,5 hPa 0,0 l/m 0 min 0 min 0,0 UV-I 51 W/m 0,0 km/h (0 Bft)
28.12.2013 15:06 7,8 C 6,1 C 92 % 1000,5 hPa 0,0 l/m 0 min 0 min 0,0 UV-I 54 W/m 0,0 km/h (0 Bft)
28.12.2013 15:08 7,8 C 6,1 C 92 % 1000,5 hPa 0,0 l/m 0 min 0 min 0,0 UV-I 62 W/m 0,0 km/h (0 Bft)
28.12.2013 15:10 7,8 C 6,1 C 92 % 1000,5 hPa 0,0 l/m 0 min 0 min 0,0 UV-I 65 W/m 0,0 km/h (0 Bft)
28.12.2013 15:12 7,8 C 6,1 C 93 % 1000,6 hPa 0,0 l/m 0 min 0 min 0,0 UV-I 60 W/m 0,0 km/h (0 Bft)
28.12.2013 15:14 7,8 C 6,1 C 93 % 1000,6 hPa 0,0 l/m 0 min 0 min 0,0 UV-I 51 W/m 0,0 km/h (0 Bft)
28.12.2013 15:16 7,8 C 6,1 C 93 % 1000,6 hPa 0,0 l/m 0 min 0 min 0,0 UV-I 42 W/m 0,0 km/h (0 Bft)
28.12.2013 15:18 7,7 C 6,1 C 93 % 1000,6 hPa 0,0 l/m 0 min 0 min 0,0 UV-I 44 W/m 0,0 km/h (0 Bft)
28.12.2013 15:20 7,7 C 6,1 C 93 % 1000,6 hPa 0,0 l/m 0 min 0 min 0,0 UV-I 44 W/m 0,0 km/h (0 Bft)
28.12.2013 15:22 7,7 C 6,1 C 93 % 1000,6 hPa 0,0 l/m 0 min 0 min 0,0 UV-I 40 W/m 0,0 km/h (0 Bft)
28.12.2013 15:24 7,7 C 6,1 C 93 % 1000,6 hPa 0,0 l/m 0 min 0 min 0,0 UV-I 35 W/m 0,0 km/h (0 Bft)
28.12.2013 15:26 7,7 C 6,1 C 93 % 1000,6 hPa 0,0 l/m 0 min 0 min 0,0 UV-I 33 W/m 0,0 km/h (0 Bft)
28.12.2013 15:28 7,6 C 6,1 C 93 % 1000,7 hPa 0,0 l/m 0 min 0 min 0,0 UV-I 33 W/m 0,0 km/h (0 Bft)
28.12.2013 15:30 7,6 C 6,1 C 93 % 1000,7 hPa 0,0 l/m 0 min 0 min 0,0 UV-I 32 W/m 0,0 km/h (0 Bft)
28.12.2013 15:32 7,6 C 6,1 C 93 % 1000,8 hPa 0,0 l/m 0 min 0 min 0,0 UV-I 32 W/m 7,7 km/h (2 Bft)
28.12.2013 15:34 7,6 C 6,1 C 93 % 1001,0 hPa 0,0 l/m 0 min 0 min 0,0 UV-I 32 W/m 0,0 km/h (0 Bft)
28.12.2013 15:36 7,6 C 6,1 C 93 % 1001,1 hPa 0,0 l/m 0 min 0 min 0,0 UV-I 30 W/m 0,0 km/h (0 Bft)
28.12.2013 15:38 7,6 C 6,1 C 93 % 1001,1 hPa 0,0 l/m 0 min 0 min 0,0 UV-I 28 W/m 0,0 km/h (0 Bft)
28.12.2013 15:40 7,5 C 6,1 C 93 % 1000,9 hPa 0,0 l/m 0 min 0 min 0,0 UV-I 30 W/m 0,0 km/h (0 Bft)
28.12.2013 15:42 7,5 C 6,1 C 93 % 1001,0 hPa 0,0 l/m 0 min 0 min 0,0 UV-I 26 W/m 0,0 km/h (0 Bft)
28.12.2013 15:44 7,5 C 6,1 C 93 % 1001,1 hPa 0,0 l/m 0 min 0 min 0,0 UV-I 26 W/m 0,0 km/h (0 Bft)
28.12.2013 15:46 7,5 C 6,1 C 93 % 1001,2 hPa 0,0 l/m 0 min 0 min 0,0 UV-I 26 W/m 2,6 km/h (1 Bft)
28.12.2013 15:48 7,5 C 6,1 C 93 % 1001,3 hPa 0,0 l/m 0 min 0 min 0,0 UV-I 21 W/m 0,0 km/h (0 Bft)
28.12.2013 15:50 7,4 C 5,6 C 93 % 1001,3 hPa 0,0 l/m 0 min 0 min 0,0 UV-I 19 W/m 0,0 km/h (0 Bft)
28.12.2013 15:52 7,4 C 5,6 C 93 % 1001,4 hPa 0,0 l/m 0 min 0 min 0,0 UV-I 19 W/m 0,0 km/h (0 Bft)
28.12.2013 15:54 7,4 C 5,6 C 93 % 1001,4 hPa 0,0 l/m 0 min 0 min 0,0 UV-I 19 W/m 0,0 km/h (0 Bft)
28.12.2013 15:56 7,4 C 5,6 C 93 % 1001,5 hPa 0,0 l/m 0 min 0 min 0,0 UV-I 18 W/m 0,0 km/h (0 Bft)
28.12.2013 15:58 7,4 C 5,6 C 93 % 1001,5 hPa 0,0 l/m 0 min 0 min 0,0 UV-I 18 W/m 0,0 km/h (0 Bft)
28.12.2013 16:00 7,4 C 5,6 C 93 % 1001,4 hPa 0,0 l/m 0 min 0 min 0,0 UV-I 16 W/m 0,0 km/h (0 Bft)
28.12.2013 16:02 7,3 C 5,6 C 93 % 1001,3 hPa 0,0 l/m 0 min 0 min 0,0 UV-I 14 W/m 0,0 km/h (0 Bft)
28.12.2013 16:04 7,3 C 5,6 C 93 % 1001,4 hPa 0,0 l/m 0 min 0 min 0,0 UV-I 12 W/m 0,0 km/h (0 Bft)
28.12.2013 16:06 7,3 C 5,6 C 93 % 1001,4 hPa 0,0 l/m 0 min 0 min 0,0 UV-I 11 W/m 0,0 km/h (0 Bft)
28.12.2013 16:08 7,3 C 5,6 C 93 % 1001,5 hPa 0,0 l/m 0 min 0 min 0,0 UV-I 9 W/m 0,0 km/h (0 Bft)
28.12.2013 16:10 7,2 C 5,6 C 94 % 1001,5 hPa 0,0 l/m 0 min 0 min 0,0 UV-I 9 W/m 0,0 km/h (0 Bft)
28.12.2013 16:12 7,2 C 5,6 C 94 % 1001,5 hPa 0,0 l/m 0 min 0 min 0,0 UV-I 7 W/m 0,0 km/h (0 Bft)
28.12.2013 16:14 7,2 C 5,6 C 94 % 1001,5 hPa 0,0 l/m 0 min 0 min 0,0 UV-I 7 W/m 0,0 km/h (0 Bft)
28.12.2013 16:16 7,2 C 5,6 C 94 % 1001,6 hPa 0,0 l/m 0 min 0 min 0,0 UV-I 7 W/m 0,0 km/h (0 Bft)
28.12.2013 16:18 7,2 C 5,6 C 94 % 1001,6 hPa 0,0 l/m 0 min 0 min 0,0 UV-I 7 W/m 0,0 km/h (0 Bft)
28.12.2013 16:20 7,2 C 5,6 C 94 % 1001,5 hPa 0,0 l/m 0 min 0 min 0,0 UV-I 5 W/m 0,0 km/h (0 Bft)
28.12.2013 16:22 7,2 C 5,6 C 94 % 1001,5 hPa 0,0 l/m 0 min 0 min 0,0 UV-I 5 W/m 0,0 km/h (0 Bft)
28.12.2013 16:24 7,2 C 5,6 C 94 % 1001,5 hPa 0,0 l/m 0 min 0 min 0,0 UV-I 5 W/m 0,0 km/h (0 Bft)
28.12.2013 16:26 7,2 C 5,0 C 94 % 1001,5 hPa 0,0 l/m 0 min 0 min 0,0 UV-I 5 W/m 0,0 km/h (0 Bft)
28.12.2013 16:28 7,2 C 5,0 C 94 % 1001,4 hPa 0,0 l/m 0 min 0 min 0,0 UV-I 5 W/m 0,0 km/h (0 Bft)
28.12.2013 16:30 7,2 C 5,0 C 94 % 1001,4 hPa 0,0 l/m 0 min 0 min 0,0 UV-I 0 W/m 0,0 km/h (0 Bft)
28.12.2013 16:32 7,2 C 5,0 C 94 % 1001,5 hPa 0,0 l/m 0 min 0 min 0,0 UV-I 0 W/m 0,0 km/h (0 Bft)
28.12.2013 16:34 7,2 C 5,6 C 94 % 1001,5 hPa 0,0 l/m 0 min 0 min 0,0 UV-I 0 W/m 0,0 km/h (0 Bft)
28.12.2013 16:36 7,2 C 5,0 C 94 % 1001,4 hPa 0,0 l/m 0 min 0 min 0,0 UV-I 0 W/m 0,0 km/h (0 Bft)
28.12.2013 16:38 7,2 C 5,0 C 94 % 1001,4 hPa 0,0 l/m 0 min 0 min 0,0 UV-I 0 W/m 0,0 km/h (0 Bft)
28.12.2013 16:40 7,2 C 5,0 C 94 % 1001,4 hPa 0,0 l/m 0 min 0 min 0,0 UV-I 0 W/m 0,0 km/h (0 Bft)
28.12.2013 16:42 7,1 C 5,0 C 94 % 1001,3 hPa 0,0 l/m 0 min 0 min 0,0 UV-I 0 W/m 0,0 km/h (0 Bft)
28.12.2013 16:44 7,1 C 5,0 C 94 % 1001,3 hPa 0,0 l/m 0 min 0 min 0,0 UV-I 0 W/m 0,0 km/h (0 Bft)
28.12.2013 16:46 7,1 C 5,0 C 94 % 1001,4 hPa 0,0 l/m 0 min 0 min 0,0 UV-I 0 W/m 0,0 km/h (0 Bft)
28.12.2013 16:48 7,1 C 5,0 C 94 % 1001,2 hPa 0,0 l/m 0 min 0 min 0,0 UV-I 0 W/m 0,0 km/h (0 Bft)
28.12.2013 16:50 7,1 C 5,0 C 94 % 1001,3 hPa 0,0 l/m 0 min 0 min 0,0 UV-I 0 W/m 0,0 km/h (0 Bft)
28.12.2013 16:52 7,1 C 5,0 C 94 % 1001,3 hPa 0,0 l/m 0 min 0 min 0,0 UV-I 0 W/m 0,0 km/h (0 Bft)
28.12.2013 16:54 7,1 C 5,0 C 94 % 1001,4 hPa 0,0 l/m 0 min 0 min 0,0 UV-I 0 W/m 0,0 km/h (0 Bft)
28.12.2013 16:56 7,1 C 5,0 C 94 % 1001,4 hPa 0,0 l/m 0 min 0 min 0,0 UV-I 0 W/m 0,0 km/h (0 Bft)
28.12.2013 16:58 7,1 C 5,0 C 94 % 1001,5 hPa 0,0 l/m 0 min 0 min 0,0 UV-I 0 W/m 0,0 km/h (0 Bft)
28.12.2013 17:00 7,0 C 5,0 C 94 % 1001,6 hPa 0,0 l/m 0 min 0 min 0,0 UV-I 0 W/m 0,0 km/h (0 Bft)
28.12.2013 17:02 7,0 C 5,0 C 94 % 1001,7 hPa 0,0 l/m 0 min 0 min 0,0 UV-I 0 W/m 0,0 km/h (0 Bft)
28.12.2013 17:04 7,0 C 5,0 C 94 % 1001,7 hPa 0,0 l/m 0 min 0 min 0,0 UV-I 0 W/m 0,0 km/h (0 Bft)
28.12.2013 17:06 7,0 C 5,0 C 94 % 1001,7 hPa 0,0 l/m 0 min 0 min 0,0 UV-I 0 W/m 0,0 km/h (0 Bft)
28.12.2013 17:08 6,9 C 5,0 C 94 % 1001,7 hPa 0,0 l/m 0 min 0 min 0,0 UV-I 0 W/m 0,0 km/h (0 Bft)
28.12.2013 17:10 6,9 C 5,0 C 94 % 1001,7 hPa 0,0 l/m 0 min 0 min 0,0 UV-I 0 W/m 0,0 km/h (0 Bft)
28.12.2013 17:12 6,9 C 5,0 C 94 % 1001,7 hPa 0,0 l/m 0 min 0 min 0,0 UV-I 0 W/m 0,0 km/h (0 Bft)
28.12.2013 17:14 6,9 C 5,0 C 94 % 1001,8 hPa 0,0 l/m 0 min 0 min 0,0 UV-I 0 W/m 0,0 km/h (0 Bft)
28.12.2013 17:16 6,9 C 5,0 C 94 % 1001,9 hPa 0,0 l/m 0 min 0 min 0,0 UV-I 0 W/m 0,0 km/h (0 Bft)
28.12.2013 17:18 6,9 C 5,0 C 94 % 1001,7 hPa 0,0 l/m 0 min 0 min 0,0 UV-I 0 W/m 0,0 km/h (0 Bft)
28.12.2013 17:20 6,9 C 5,0 C 94 % 1001,7 hPa 0,0 l/m 0 min 0 min 0,0 UV-I 0 W/m 0,0 km/h (0 Bft)
28.12.2013 17:22 6,9 C 5,0 C 94 % 1001,7 hPa 0,0 l/m 0 min 0 min 0,0 UV-I 0 W/m 0,0 km/h (0 Bft)
28.12.2013 17:24 6,9 C 5,0 C 94 % 1001,7 hPa 0,0 l/m 0 min 0 min 0,0 UV-I 0 W/m 0,0 km/h (0 Bft)
28.12.2013 17:26 6,9 C 5,0 C 94 % 1001,7 hPa 0,0 l/m 0 min 0 min 0,0 UV-I 0 W/m 0,0 km/h (0 Bft)
28.12.2013 17:28 6,9 C 5,0 C 94 % 1001,7 hPa 0,0 l/m 0 min 0 min 0,0 UV-I 0 W/m 0,0 km/h (0 Bft)
28.12.2013 17:30 6,9 C 5,0 C 94 % 1001,9 hPa 0,0 l/m 0 min 0 min 0,0 UV-I 0 W/m 0,0 km/h (0 Bft)
28.12.2013 17:32 6,9 C 5,0 C 94 % 1001,9 hPa 0,0 l/m 0 min 0 min 0,0 UV-I 0 W/m 0,0 km/h (0 Bft)
28.12.2013 17:34 6,8 C 5,0 C 94 % 1001,9 hPa 0,0 l/m 0 min 0 min 0,0 UV-I 0 W/m 0,0 km/h (0 Bft)
28.12.2013 17:36 6,8 C 5,0 C 94 % 1002,0 hPa 0,0 l/m 0 min 0 min 0,0 UV-I 0 W/m 0,0 km/h (0 Bft)
28.12.2013 17:38 6,8 C 5,0 C 94 % 1002,0 hPa 0,0 l/m 0 min 0 min 0,0 UV-I 0 W/m 0,0 km/h (0 Bft)
28.12.2013 17:40 6,8 C 5,0 C 94 % 1002,1 hPa 0,0 l/m 0 min 0 min 0,0 UV-I 0 W/m 0,0 km/h (0 Bft)
28.12.2013 17:42 6,8 C 5,0 C 94 % 1002,0 hPa 0,0 l/m 0 min 0 min 0,0 UV-I 0 W/m 0,0 km/h (0 Bft)
28.12.2013 17:44 6,8 C 5,0 C 94 % 1002,0 hPa 0,0 l/m 0 min 0 min 0,0 UV-I 0 W/m 0,0 km/h (0 Bft)
28.12.2013 17:46 6,8 C 5,0 C 94 % 1002,0 hPa 0,0 l/m 0 min 0 min 0,0 UV-I 0 W/m 0,0 km/h (0 Bft)
28.12.2013 17:48 6,8 C 5,0 C 94 % 1001,9 hPa 0,0 l/m 0 min 0 min 0,0 UV-I 0 W/m 0,0 km/h (0 Bft)
28.12.2013 17:50 6,8 C 5,0 C 95 % 1001,9 hPa 0,0 l/m 0 min 0 min 0,0 UV-I 0 W/m 0,0 km/h (0 Bft)
28.12.2013 17:52 6,8 C 5,0 C 95 % 1002,0 hPa 0,0 l/m 0 min 0 min 0,0 UV-I 0 W/m 0,0 km/h (0 Bft)
28.12.2013 17:54 6,8 C 5,0 C 95 % 1002,0 hPa 0,0 l/m 0 min 0 min 0,0 UV-I 0 W/m 0,0 km/h (0 Bft)
28.12.2013 17:56 6,8 C 5,0 C 95 % 1002,0 hPa 0,0 l/m 0 min 0 min 0,0 UV-I 0 W/m 0,0 km/h (0 Bft)
28.12.2013 17:58 6,8 C 5,0 C 95 % 1002,1 hPa 0,0 l/m 0 min 0 min 0,0 UV-I 0 W/m 0,0 km/h (0 Bft)
28.12.2013 18:00 6,8 C 5,0 C 95 % 1002,0 hPa 0,0 l/m 0 min 0 min 0,0 UV-I 0 W/m 0,0 km/h (0 Bft)
28.12.2013 18:02 6,8 C 5,0 C 95 % 1002,0 hPa 0,0 l/m 0 min 0 min 0,0 UV-I 0 W/m 0,0 km/h (0 Bft)
28.12.2013 18:04 6,7 C 5,0 C 95 % 1002,2 hPa 0,0 l/m 0 min 0 min 0,0 UV-I 0 W/m 0,0 km/h (0 Bft)
28.12.2013 18:06 6,7 C 5,0 C 95 % 1002,2 hPa 0,0 l/m 0 min 0 min 0,0 UV-I 0 W/m 0,0 km/h (0 Bft)
28.12.2013 18:08 6,7 C 5,0 C 95 % 1002,1 hPa 0,0 l/m 0 min 0 min 0,0 UV-I 0 W/m 0,0 km/h (0 Bft)
28.12.2013 18:10 6,7 C 5,0 C 95 % 1002,2 hPa 0,0 l/m 0 min 0 min 0,0 UV-I 0 W/m 0,0 km/h (0 Bft)
28.12.2013 18:12 6,7 C 5,0 C 95 % 1002,2 hPa 0,0 l/m 0 min 0 min 0,0 UV-I 0 W/m 0,0 km/h (0 Bft)
28.12.2013 18:14 6,7 C 5,0 C 95 % 1002,2 hPa 0,0 l/m 0 min 0 min 0,0 UV-I 0 W/m 0,0 km/h (0 Bft)
28.12.2013 18:16 6,7 C 5,0 C 95 % 1002,2 hPa 0,0 l/m 0 min 0 min 0,0 UV-I 0 W/m 0,0 km/h (0 Bft)
28.12.2013 18:18 6,7 C 5,0 C 95 % 1002,2 hPa 0,0 l/m 0 min 0 min 0,0 UV-I 0 W/m 0,0 km/h (0 Bft)
28.12.2013 18:20 6,7 C 5,0 C 95 % 1002,2 hPa 0,0 l/m 0 min 0 min 0,0 UV-I 0 W/m 0,0 km/h (0 Bft)
28.12.2013 18:22 6,7 C 5,0 C 95 % 1002,3 hPa 0,0 l/m 0 min 0 min 0,0 UV-I 0 W/m 0,0 km/h (0 Bft)
28.12.2013 18:24 6,7 C 5,0 C 95 % 1002,3 hPa 0,0 l/m 0 min 0 min 0,0 UV-I 0 W/m 0,0 km/h (0 Bft)
28.12.2013 18:26 6,7 C 5,0 C 95 % 1002,2 hPa 0,0 l/m 0 min 0 min 0,0 UV-I 0 W/m 0,0 km/h (0 Bft)
28.12.2013 18:28 6,7 C 5,0 C 95 % 1002,2 hPa 0,0 l/m 0 min 0 min 0,0 UV-I 0 W/m 0,0 km/h (0 Bft)
28.12.2013 18:30 6,7 C 5,0 C 95 % 1002,1 hPa 0,0 l/m 0 min 0 min 0,0 UV-I 0 W/m 5,1 km/h (1 Bft)
28.12.2013 18:32 6,7 C 5,0 C 95 % 1002,2 hPa 0,0 l/m 0 min 0 min 0,0 UV-I 0 W/m 0,0 km/h (0 Bft)
28.12.2013 18:34 6,7 C 5,0 C 95 % 1002,2 hPa 0,0 l/m 0 min 0 min 0,0 UV-I 0 W/m 0,0 km/h (0 Bft)
28.12.2013 18:36 6,7 C 5,0 C 95 % 1002,2 hPa 0,0 l/m 0 min 0 min 0,0 UV-I 0 W/m 0,0 km/h (0 Bft)
28.12.2013 18:38 6,7 C 5,0 C 95 % 1002,3 hPa 0,0 l/m 0 min 0 min 0,0 UV-I 0 W/m 0,0 km/h (0 Bft)
28.12.2013 18:40 6,7 C 5,0 C 95 % 1002,5 hPa 0,0 l/m 0 min 0 min 0,0 UV-I 0 W/m 0,0 km/h (0 Bft)
28.12.2013 18:42 6,7 C 5,0 C 95 % 1002,4 hPa 0,0 l/m 0 min 0 min 0,0 UV-I 0 W/m 0,0 km/h (0 Bft)
28.12.2013 18:44 6,7 C 5,0 C 95 % 1002,5 hPa 0,0 l/m 0 min 0 min 0,0 UV-I 0 W/m 0,0 km/h (0 Bft)
28.12.2013 18:46 6,7 C 5,0 C 95 % 1002,5 hPa 0,0 l/m 0 min 0 min 0,0 UV-I 0 W/m 0,0 km/h (0 Bft)
28.12.2013 18:48 6,7 C 5,0 C 95 % 1002,5 hPa 0,0 l/m 0 min 0 min 0,0 UV-I 0 W/m 5,1 km/h (1 Bft)
28.12.2013 18:50 6,7 C 5,6 C 95 % 1002,6 hPa 0,0 l/m 0 min 0 min 0,0 UV-I 0 W/m 0,0 km/h (0 Bft)
28.12.2013 18:52 6,7 C 5,6 C 95 % 1002,7 hPa 0,0 l/m 0 min 0 min 0,0 UV-I 0 W/m 0,0 km/h (0 Bft)
28.12.2013 18:54 6,7 C 5,6 C 95 % 1002,6 hPa 0,0 l/m 0 min 0 min 0,0 UV-I 0 W/m 0,0 km/h (0 Bft)
28.12.2013 18:56 6,7 C 5,0 C 95 % 1002,6 hPa 0,0 l/m 0 min 0 min 0,0 UV-I 0 W/m 0,0 km/h (0 Bft)
28.12.2013 18:58 6,7 C 5,0 C 95 % 1002,6 hPa 0,0 l/m 0 min 0 min 0,0 UV-I 0 W/m 0,0 km/h (0 Bft)
28.12.2013 19:00 6,7 C 5,0 C 95 % 1002,7 hPa 0,0 l/m 0 min 0 min 0,0 UV-I 0 W/m 0,0 km/h (0 Bft)
28.12.2013 19:02 6,7 C 5,0 C 95 % 1002,7 hPa 0,0 l/m 0 min 0 min 0,0 UV-I 0 W/m 0,0 km/h (0 Bft)
28.12.2013 19:04 6,7 C 5,0 C 95 % 1002,7 hPa 0,0 l/m 0 min 0 min 0,0 UV-I 0 W/m 7,7 km/h (2 Bft)
28.12.2013 19:06 6,7 C 5,0 C 95 % 1002,5 hPa 0,0 l/m 0 min 0 min 0,0 UV-I 0 W/m 0,0 km/h (0 Bft)
28.12.2013 19:08 6,7 C 5,0 C 95 % 1002,4 hPa 0,0 l/m 0 min 0 min 0,0 UV-I 0 W/m 0,0 km/h (0 Bft)
28.12.2013 19:10 6,7 C 5,0 C 95 % 1002,4 hPa 0,0 l/m 0 min 0 min 0,0 UV-I 0 W/m 5,1 km/h (1 Bft)
28.12.2013 19:12 6,7 C 5,0 C 95 % 1002,3 hPa 0,0 l/m 0 min 0 min 0,0 UV-I 0 W/m 0,0 km/h (0 Bft)
28.12.2013 19:14 6,7 C 5,0 C 95 % 1002,2 hPa 0,0 l/m 0 min 0 min 0,0 UV-I 0 W/m 0,0 km/h (0 Bft)
28.12.2013 19:16 6,7 C 5,0 C 95 % 1002,1 hPa 0,0 l/m 0 min 0 min 0,0 UV-I 0 W/m 0,0 km/h (0 Bft)
28.12.2013 19:18 6,7 C 5,0 C 95 % 1002,2 hPa 0,0 l/m 0 min 0 min 0,0 UV-I 0 W/m 0,0 km/h (0 Bft)
28.12.2013 19:20 6,7 C 5,0 C 95 % 1002,3 hPa 0,0 l/m 0 min 0 min 0,0 UV-I 0 W/m 0,0 km/h (0 Bft)
28.12.2013 19:22 6,7 C 5,0 C 96 % 1002,4 hPa 0,0 l/m 0 min 0 min 0,0 UV-I 0 W/m 0,0 km/h (0 Bft)
28.12.2013 19:24 6,7 C 5,0 C 96 % 1002,4 hPa 0,0 l/m 0 min 0 min 0,0 UV-I 0 W/m 0,0 km/h (0 Bft)
28.12.2013 19:26 6,7 C 5,0 C 96 % 1002,3 hPa 0,0 l/m 0 min 0 min 0,0 UV-I 0 W/m 0,0 km/h (0 Bft)
28.12.2013 19:28 6,7 C 5,0 C 96 % 1002,3 hPa 0,0 l/m 0 min 0 min 0,0 UV-I 0 W/m 0,0 km/h (0 Bft)
28.12.2013 19:30 6,7 C 5,0 C 96 % 1002,3 hPa 0,0 l/m 0 min 0 min 0,0 UV-I 0 W/m 0,0 km/h (0 Bft)
28.12.2013 19:32 6,7 C 5,0 C 96 % 1002,3 hPa 0,0 l/m 0 min 0 min 0,0 UV-I 0 W/m 0,0 km/h (0 Bft)
28.12.2013 19:34 6,7 C 5,0 C 96 % 1002,4 hPa 0,0 l/m 0 min 0 min 0,0 UV-I 0 W/m 0,0 km/h (0 Bft)
28.12.2013 19:36 6,7 C 5,0 C 96 % 1002,5 hPa 0,0 l/m 0 min 0 min 0,0 UV-I 0 W/m 0,0 km/h (0 Bft)
28.12.2013 19:38 6,7 C 5,0 C 96 % 1002,5 hPa 0,0 l/m 0 min 0 min 0,0 UV-I 0 W/m 0,0 km/h (0 Bft)
28.12.2013 19:40 6,7 C 5,0 C 96 % 1002,5 hPa 0,0 l/m 0 min 0 min 0,0 UV-I 0 W/m 0,0 km/h (0 Bft)
28.12.2013 19:42 6,7 C 5,0 C 96 % 1002,7 hPa 0,0 l/m 0 min 0 min 0,0 UV-I 0 W/m 0,0 km/h (0 Bft)
28.12.2013 19:44 6,7 C 5,0 C 96 % 1002,7 hPa 0,0 l/m 0 min 0 min 0,0 UV-I 0 W/m 0,0 km/h (0 Bft)
28.12.2013 19:46 6,7 C 5,0 C 96 % 1002,9 hPa 0,0 l/m 0 min 0 min 0,0 UV-I 0 W/m 0,0 km/h (0 Bft)
28.12.2013 19:48 6,7 C 5,0 C 96 % 1002,9 hPa 0,0 l/m 0 min 0 min 0,0 UV-I 0 W/m 0,0 km/h (0 Bft)
28.12.2013 19:50 6,7 C 5,0 C 96 % 1003,0 hPa 0,0 l/m 0 min 0 min 0,0 UV-I 0 W/m 0,0 km/h (0 Bft)
28.12.2013 19:52 6,6 C 5,0 C 96 % 1003,0 hPa 0,0 l/m 0 min 0 min 0,0 UV-I 0 W/m 0,0 km/h (0 Bft)
28.12.2013 19:54 6,6 C 5,0 C 96 % 1003,0 hPa 0,0 l/m 0 min 0 min 0,0 UV-I 0 W/m 0,0 km/h (0 Bft)
28.12.2013 19:56 6,6 C 5,0 C 96 % 1003,1 hPa 0,0 l/m 0 min 0 min 0,0 UV-I 0 W/m 0,0 km/h (0 Bft)
28.12.2013 19:58 6,6 C 5,0 C 96 % 1003,2 hPa 0,0 l/m 0 min 0 min 0,0 UV-I 0 W/m 0,0 km/h (0 Bft)
28.12.2013 20:00 6,6 C 5,0 C 96 % 1003,2 hPa 0,0 l/m 0 min 0 min 0,0 UV-I 0 W/m 0,0 km/h (0 Bft)
28.12.2013 20:02 6,6 C 5,0 C 95 % 1003,2 hPa 0,0 l/m 0 min 0 min 0,0 UV-I 0 W/m 0,0 km/h (0 Bft)
28.12.2013 20:04 6,6 C 5,0 C 95 % 1003,3 hPa 0,0 l/m 0 min 0 min 0,0 UV-I 0 W/m 5,1 km/h (1 Bft)
28.12.2013 20:06 6,6 C 5,0 C 95 % 1003,4 hPa 0,0 l/m 0 min 0 min 0,0 UV-I 0 W/m 2,6 km/h (1 Bft)
28.12.2013 20:08 6,6 C 5,0 C 95 % 1003,6 hPa 0,0 l/m 0 min 0 min 0,0 UV-I 0 W/m 0,0 km/h (0 Bft)
28.12.2013 20:10 6,6 C 5,0 C 95 % 1003,6 hPa 0,0 l/m 0 min 0 min 0,0 UV-I 0 W/m 0,0 km/h (0 Bft)
28.12.2013 20:12 6,6 C 5,0 C 95 % 1003,7 hPa 0,0 l/m 0 min 0 min 0,0 UV-I 0 W/m 0,0 km/h (0 Bft)
28.12.2013 20:14 6,6 C 5,0 C 95 % 1003,7 hPa 0,0 l/m 0 min 0 min 0,0 UV-I 0 W/m 0,0 km/h (0 Bft)
28.12.2013 20:16 6,6 C 5,0 C 95 % 1003,7 hPa 0,0 l/m 0 min 0 min 0,0 UV-I 0 W/m 0,0 km/h (0 Bft)
28.12.2013 20:18 6,6 C 5,0 C 96 % 1003,6 hPa 0,0 l/m 0 min 0 min 0,0 UV-I 0 W/m 0,0 km/h (0 Bft)
28.12.2013 20:20 6,6 C 5,0 C 96 % 1003,6 hPa 0,0 l/m 0 min 0 min 0,0 UV-I 0 W/m 0,0 km/h (0 Bft)
28.12.2013 20:22 6,6 C 5,0 C 96 % 1003,6 hPa 0,0 l/m 0 min 0 min 0,0 UV-I 0 W/m 0,0 km/h (0 Bft)
28.12.2013 20:24 6,6 C 5,0 C 96 % 1003,7 hPa 0,0 l/m 0 min 0 min 0,0 UV-I 0 W/m 0,0 km/h (0 Bft)
28.12.2013 20:26 6,6 C 5,0 C 96 % 1003,8 hPa 0,0 l/m 0 min 0 min 0,0 UV-I 0 W/m 2,6 km/h (1 Bft)
28.12.2013 20:28 6,6 C 5,0 C 96 % 1003,7 hPa 0,0 l/m 0 min 0 min 0,0 UV-I 0 W/m 0,0 km/h (0 Bft)
28.12.2013 20:30 6,6 C 5,0 C 96 % 1003,7 hPa 0,0 l/m 0 min 0 min 0,0 UV-I 0 W/m 5,1 km/h (1 Bft)
28.12.2013 20:32 6,6 C 5,0 C 96 % 1003,7 hPa 0,0 l/m 0 min 0 min 0,0 UV-I 0 W/m 2,6 km/h (1 Bft)
28.12.2013 20:34 6,6 C 5,0 C 96 % 1003,7 hPa 0,0 l/m 0 min 0 min 0,0 UV-I 0 W/m 0,0 km/h (0 Bft)
28.12.2013 20:36 6,5 C 5,0 C 96 % 1003,8 hPa 0,0 l/m 0 min 0 min 0,0 UV-I 0 W/m 0,0 km/h (0 Bft)
28.12.2013 20:38 6,6 C 5,0 C 96 % 1003,8 hPa 0,0 l/m 0 min 0 min 0,0 UV-I 0 W/m 0,0 km/h (0 Bft)
28.12.2013 20:40 6,6 C 5,0 C 96 % 1003,8 hPa 0,0 l/m 0 min 0 min 0,0 UV-I 0 W/m 0,0 km/h (0 Bft)
28.12.2013 20:42 6,5 C 5,0 C 96 % 1003,7 hPa 0,0 l/m 0 min 0 min 0,0 UV-I 0 W/m 0,0 km/h (0 Bft)
28.12.2013 20:44 6,5 C 5,0 C 96 % 1003,7 hPa 0,0 l/m 0 min 0 min 0,0 UV-I 0 W/m 0,0 km/h (0 Bft)
28.12.2013 20:46 6,5 C 5,0 C 96 % 1003,6 hPa 0,0 l/m 0 min 0 min 0,0 UV-I 0 W/m 0,0 km/h (0 Bft)
28.12.2013 20:48 6,5 C 5,0 C 96 % 1003,7 hPa 0,0 l/m 0 min 0 min 0,0 UV-I 0 W/m 0,0 km/h (0 Bft)
28.12.2013 20:50 6,5 C 5,0 C 96 % 1003,7 hPa 0,0 l/m 0 min 0 min 0,0 UV-I 0 W/m 2,6 km/h (1 Bft)
28.12.2013 20:52 6,5 C 5,0 C 96 % 1003,6 hPa 0,0 l/m 0 min 0 min 0,0 UV-I 0 W/m 0,0 km/h (0 Bft)
28.12.2013 20:54 6,5 C 5,0 C 96 % 1003,6 hPa 0,0 l/m 0 min 0 min 0,0 UV-I 0 W/m 7,7 km/h (2 Bft)
28.12.2013 20:56 6,5 C 5,0 C 96 % 1003,7 hPa 0,0 l/m 0 min 0 min 0,0 UV-I 0 W/m 0,0 km/h (0 Bft)
28.12.2013 20:58 6,5 C 5,0 C 96 % 1003,7 hPa 0,0 l/m 0 min 0 min 0,0 UV-I 0 W/m 5,1 km/h (1 Bft)
28.12.2013 21:00 6,5 C 5,0 C 96 % 1003,8 hPa 0,0 l/m 0 min 0 min 0,0 UV-I 0 W/m 0,0 km/h (0 Bft)
28.12.2013 21:02 6,5 C 5,0 C 96 % 1003,8 hPa 0,0 l/m 0 min 0 min 0,0 UV-I 0 W/m 0,0 km/h (0 Bft)
28.12.2013 21:04 6,5 C 5,0 C 96 % 1003,8 hPa 0,0 l/m 0 min 0 min 0,0 UV-I 0 W/m 0,0 km/h (0 Bft)
28.12.2013 21:06 6,5 C 5,0 C 96 % 1003,8 hPa 0,0 l/m 0 min 0 min 0,0 UV-I 0 W/m 0,0 km/h (0 Bft)
28.12.2013 21:08 6,5 C 5,0 C 96 % 1003,8 hPa 0,0 l/m 0 min 0 min 0,0 UV-I 0 W/m 0,0 km/h (0 Bft)
28.12.2013 21:10 6,5 C 5,0 C 96 % 1003,8 hPa 0,0 l/m 0 min 0 min 0,0 UV-I 0 W/m 0,0 km/h (0 Bft)
28.12.2013 21:12 6,5 C 5,0 C 96 % 1003,8 hPa 0,0 l/m 0 min 0 min 0,0 UV-I 0 W/m 0,0 km/h (0 Bft)
28.12.2013 21:14 6,5 C 5,0 C 96 % 1003,8 hPa 0,0 l/m 0 min 0 min 0,0 UV-I 0 W/m 0,0 km/h (0 Bft)
28.12.2013 21:16 6,4 C 5,0 C 96 % 1003,8 hPa 0,0 l/m 0 min 0 min 0,0 UV-I 0 W/m 0,0 km/h (0 Bft)
28.12.2013 21:18 6,4 C 5,0 C 96 % 1003,8 hPa 0,0 l/m 0 min 0 min 0,0 UV-I 0 W/m 0,0 km/h (0 Bft)
28.12.2013 21:20 6,4 C 5,0 C 96 % 1003,7 hPa 0,0 l/m 0 min 0 min 0,0 UV-I 0 W/m 0,0 km/h (0 Bft)
28.12.2013 21:22 6,4 C 5,0 C 96 % 1003,8 hPa 0,0 l/m 0 min 0 min 0,0 UV-I 0 W/m 0,0 km/h (0 Bft)
28.12.2013 21:24 6,4 C 5,0 C 96 % 1003,8 hPa 0,0 l/m 0 min 0 min 0,0 UV-I 0 W/m 0,0 km/h (0 Bft)
28.12.2013 21:26 6,4 C 5,0 C 96 % 1003,9 hPa 0,0 l/m 0 min 0 min 0,0 UV-I 0 W/m 0,0 km/h (0 Bft)
28.12.2013 21:28 6,4 C 5,0 C 96 % 1003,9 hPa 0,0 l/m 0 min 0 min 0,0 UV-I 0 W/m 0,0 km/h (0 Bft)
28.12.2013 21:30 6,4 C 5,0 C 96 % 1003,9 hPa 0,0 l/m 0 min 0 min 0,0 UV-I 0 W/m 0,0 km/h (0 Bft)
28.12.2013 21:32 6,4 C 5,0 C 96 % 1003,9 hPa 0,0 l/m 0 min 0 min 0,0 UV-I 0 W/m 0,0 km/h (0 Bft)
28.12.2013 21:34 6,4 C 5,0 C 96 % 1003,9 hPa 0,0 l/m 0 min 0 min 0,0 UV-I 0 W/m 0,0 km/h (0 Bft)
28.12.2013 21:36 6,4 C 5,0 C 96 % 1003,9 hPa 0,0 l/m 0 min 0 min 0,0 UV-I 0 W/m 0,0 km/h (0 Bft)
28.12.2013 21:38 6,4 C 5,0 C 96 % 1004,0 hPa 0,0 l/m 0 min 0 min 0,0 UV-I 0 W/m 0,0 km/h (0 Bft)
28.12.2013 21:40 6,4 C 5,0 C 96 % 1004,0 hPa 0,0 l/m 0 min 0 min 0,0 UV-I 0 W/m 0,0 km/h (0 Bft)
28.12.2013 21:42 6,4 C 5,0 C 96 % 1004,0 hPa 0,0 l/m 0 min 0 min 0,0 UV-I 0 W/m 0,0 km/h (0 Bft)
28.12.2013 21:44 6,4 C 5,0 C 96 % 1004,1 hPa 0,0 l/m 0 min 0 min 0,0 UV-I 0 W/m 0,0 km/h (0 Bft)
28.12.2013 21:46 6,4 C 5,0 C 96 % 1004,3 hPa 0,0 l/m 0 min 0 min 0,0 UV-I 0 W/m 0,0 km/h (0 Bft)
28.12.2013 21:48 6,4 C 5,0 C 96 % 1004,3 hPa 0,0 l/m 0 min 0 min 0,0 UV-I 0 W/m 0,0 km/h (0 Bft)
28.12.2013 21:50 6,4 C 5,0 C 96 % 1004,3 hPa 0,0 l/m 0 min 0 min 0,0 UV-I 0 W/m 0,0 km/h (0 Bft)
28.12.2013 21:52 6,4 C 5,0 C 96 % 1004,4 hPa 0,0 l/m 0 min 0 min 0,0 UV-I 0 W/m 0,0 km/h (0 Bft)
28.12.2013 21:54 6,3 C 5,0 C 96 % 1004,4 hPa 0,0 l/m 0 min 0 min 0,0 UV-I 0 W/m 0,0 km/h (0 Bft)
28.12.2013 21:56 6,3 C 5,0 C 96 % 1004,4 hPa 0,0 l/m 0 min 0 min 0,0 UV-I 0 W/m 0,0 km/h (0 Bft)
28.12.2013 21:58 6,3 C 5,0 C 96 % 1004,3 hPa 0,0 l/m 0 min 0 min 0,0 UV-I 0 W/m 0,0 km/h (0 Bft)
28.12.2013 22:00 6,3 C 5,0 C 96 % 1004,4 hPa 0,0 l/m 0 min 0 min 0,0 UV-I 0 W/m 0,0 km/h (0 Bft)
28.12.2013 22:02 6,3 C 5,0 C 96 % 1004,5 hPa 0,0 l/m 0 min 0 min 0,0 UV-I 0 W/m 0,0 km/h (0 Bft)
28.12.2013 22:04 6,3 C 5,0 C 96 % 1004,5 hPa 0,0 l/m 0 min 0 min 0,0 UV-I 0 W/m 0,0 km/h (0 Bft)
28.12.2013 22:06 6,3 C 5,0 C 96 % 1004,5 hPa 0,0 l/m 0 min 0 min 0,0 UV-I 0 W/m 0,0 km/h (0 Bft)
28.12.2013 22:08 6,3 C 5,0 C 96 % 1004,5 hPa 0,0 l/m 0 min 0 min 0,0 UV-I 0 W/m 0,0 km/h (0 Bft)
28.12.2013 22:10 6,3 C 5,0 C 96 % 1004,5 hPa 0,0 l/m 0 min 0 min 0,0 UV-I 0 W/m 2,6 km/h (1 Bft)
28.12.2013 22:12 6,3 C 5,0 C 96 % 1004,5 hPa 0,0 l/m 0 min 0 min 0,0 UV-I 0 W/m 0,0 km/h (0 Bft)
28.12.2013 22:14 6,3 C 5,0 C 96 % 1004,6 hPa 0,0 l/m 0 min 0 min 0,0 UV-I 0 W/m 7,7 km/h (2 Bft)
28.12.2013 22:16 6,3 C 5,0 C 96 % 1004,6 hPa 0,0 l/m 0 min 0 min 0,0 UV-I 0 W/m 0,0 km/h (0 Bft)
28.12.2013 22:18 6,3 C 5,0 C 96 % 1004,6 hPa 0,0 l/m 0 min 0 min 0,0 UV-I 0 W/m 5,1 km/h (1 Bft)
28.12.2013 22:20 6,3 C 5,0 C 96 % 1004,7 hPa 0,0 l/m 0 min 0 min 0,0 UV-I 0 W/m 0,0 km/h (0 Bft)
28.12.2013 22:22 6,3 C 5,0 C 96 % 1004,7 hPa 0,0 l/m 0 min 0 min 0,0 UV-I 0 W/m 0,0 km/h (0 Bft)
28.12.2013 22:24 6,3 C 5,0 C 96 % 1004,7 hPa 0,0 l/m 0 min 0 min 0,0 UV-I 0 W/m 5,1 km/h (1 Bft)
28.12.2013 22:26 6,3 C 5,0 C 96 % 1004,8 hPa 0,0 l/m 0 min 0 min 0,0 UV-I 0 W/m 2,6 km/h (1 Bft)
28.12.2013 22:28 6,3 C 5,0 C 96 % 1004,7 hPa 0,0 l/m 0 min 0 min 0,0 UV-I 0 W/m 5,1 km/h (1 Bft)
28.12.2013 22:30 6,3 C 5,0 C 96 % 1004,6 hPa 0,0 l/m 0 min 0 min 0,0 UV-I 0 W/m 0,0 km/h (0 Bft)
28.12.2013 22:32 6,3 C 5,0 C 96 % 1004,8 hPa 0,0 l/m 0 min 0 min 0,0 UV-I 0 W/m 0,0 km/h (0 Bft)
28.12.2013 22:34 6,3 C 5,0 C 96 % 1004,8 hPa 0,0 l/m 0 min 0 min 0,0 UV-I 0 W/m 7,7 km/h (2 Bft)
28.12.2013 22:36 6,3 C 5,0 C 96 % 1004,9 hPa 0,0 l/m 0 min 0 min 0,0 UV-I 0 W/m 2,6 km/h (1 Bft)
28.12.2013 22:38 6,3 C 5,0 C 96 % 1004,8 hPa 0,0 l/m 0 min 0 min 0,0 UV-I 0 W/m 2,6 km/h (1 Bft)
28.12.2013 22:40 6,3 C 5,0 C 96 % 1004,9 hPa 0,0 l/m 0 min 0 min 0,0 UV-I 0 W/m 2,6 km/h (1 Bft)
28.12.2013 22:42 6,3 C 5,0 C 96 % 1004,8 hPa 0,0 l/m 0 min 0 min 0,0 UV-I 0 W/m 7,7 km/h (2 Bft)
28.12.2013 22:44 6,3 C 5,0 C 96 % 1004,9 hPa 0,0 l/m 0 min 0 min 0,0 UV-I 0 W/m 2,6 km/h (1 Bft)
28.12.2013 22:46 6,3 C 5,0 C 96 % 1005,0 hPa 0,0 l/m 0 min 0 min 0,0 UV-I 0 W/m 0,0 km/h (0 Bft)
28.12.2013 22:48 6,3 C 5,0 C 96 % 1005,0 hPa 0,0 l/m 0 min 0 min 0,0 UV-I 0 W/m 0,0 km/h (0 Bft)
28.12.2013 22:50 6,4 C 5,0 C 96 % 1005,1 hPa 0,0 l/m 0 min 0 min 0,0 UV-I 0 W/m 0,0 km/h (0 Bft)
28.12.2013 22:52 6,4 C 5,0 C 96 % 1005,2 hPa 0,0 l/m 0 min 0 min 0,0 UV-I 0 W/m 2,6 km/h (1 Bft)
28.12.2013 22:54 6,4 C 5,0 C 96 % 1005,2 hPa 0,0 l/m 0 min 0 min 0,0 UV-I 0 W/m 0,0 km/h (0 Bft)
28.12.2013 22:56 6,3 C 5,0 C 96 % 1005,2 hPa 0,0 l/m 0 min 0 min 0,0 UV-I 0 W/m 0,0 km/h (0 Bft)
28.12.2013 22:58 6,4 C 5,0 C 96 % 1005,2 hPa 0,0 l/m 0 min 0 min 0,0 UV-I 0 W/m 0,0 km/h (0 Bft)
28.12.2013 23:00 6,3 C 5,0 C 96 % 1005,3 hPa 0,0 l/m 0 min 0 min 0,0 UV-I 0 W/m 2,6 km/h (1 Bft)
28.12.2013 23:02 6,3 C 5,0 C 96 % 1005,3 hPa 0,0 l/m 0 min 0 min 0,0 UV-I 0 W/m 5,1 km/h (1 Bft)
28.12.2013 23:04 6,3 C 5,0 C 96 % 1005,2 hPa 0,0 l/m 0 min 0 min 0,0 UV-I 0 W/m 5,1 km/h (1 Bft)
28.12.2013 23:06 6,4 C 5,0 C 96 % 1005,3 hPa 0,0 l/m 0 min 0 min 0,0 UV-I 0 W/m 0,0 km/h (0 Bft)
28.12.2013 23:08 6,4 C 5,0 C 96 % 1005,4 hPa 0,0 l/m 0 min 0 min 0,0 UV-I 0 W/m 5,1 km/h (1 Bft)
28.12.2013 23:10 6,4 C 5,0 C 96 % 1005,4 hPa 0,0 l/m 0 min 0 min 0,0 UV-I 0 W/m 2,6 km/h (1 Bft)
28.12.2013 23:12 6,4 C 5,0 C 96 % 1005,4 hPa 0,0 l/m 0 min 0 min 0,0 UV-I 0 W/m 10,3 km/h (2 Bft)
28.12.2013 23:14 6,4 C 5,0 C 96 % 1005,4 hPa 0,0 l/m 0 min 0 min 0,0 UV-I 0 W/m 2,6 km/h (1 Bft)
28.12.2013 23:16 6,4 C 5,0 C 96 % 1005,4 hPa 0,0 l/m 0 min 0 min 0,0 UV-I 0 W/m 10,3 km/h (2 Bft)
28.12.2013 23:18 6,4 C 5,0 C 96 % 1005,5 hPa 0,0 l/m 0 min 0 min 0,0 UV-I 0 W/m 2,6 km/h (1 Bft)
28.12.2013 23:20 6,4 C 5,0 C 96 % 1005,5 hPa 0,0 l/m 0 min 0 min 0,0 UV-I 0 W/m 0,0 km/h (0 Bft)
28.12.2013 23:22 6,4 C 5,0 C 96 % 1005,5 hPa 0,0 l/m 0 min 0 min 0,0 UV-I 0 W/m 2,6 km/h (1 Bft)
28.12.2013 23:24 6,4 C 5,0 C 96 % 1005,5 hPa 0,0 l/m 0 min 0 min 0,0 UV-I 0 W/m 2,6 km/h (1 Bft)
28.12.2013 23:26 6,4 C 5,0 C 96 % 1005,4 hPa 0,0 l/m 0 min 0 min 0,0 UV-I 0 W/m 0,0 km/h (0 Bft)
28.12.2013 23:28 6,4 C 5,0 C 96 % 1005,4 hPa 0,0 l/m 0 min 0 min 0,0 UV-I 0 W/m 0,0 km/h (0 Bft)
28.12.2013 23:30 6,4 C 5,0 C 96 % 1005,5 hPa 0,0 l/m 0 min 0 min 0,0 UV-I 0 W/m 0,0 km/h (0 Bft)
28.12.2013 23:32 6,4 C 5,0 C 96 % 1005,6 hPa 0,0 l/m 0 min 0 min 0,0 UV-I 0 W/m 0,0 km/h (0 Bft)
28.12.2013 23:34 6,3 C 5,0 C 96 % 1005,6 hPa 0,0 l/m 0 min 0 min 0,0 UV-I 0 W/m 10,3 km/h (2 Bft)
28.12.2013 23:36 6,3 C 5,0 C 96 % 1005,6 hPa 0,0 l/m 0 min 0 min 0,0 UV-I 0 W/m 5,1 km/h (1 Bft)
28.12.2013 23:38 6,3 C 5,0 C 96 % 1005,8 hPa 0,0 l/m 0 min 0 min 0,0 UV-I 0 W/m 0,0 km/h (0 Bft)
28.12.2013 23:40 6,3 C 5,0 C 96 % 1005,6 hPa 0,0 l/m 0 min 0 min 0,0 UV-I 0 W/m 7,7 km/h (2 Bft)
28.12.2013 23:42 6,3 C 5,0 C 96 % 1005,7 hPa 0,0 l/m 0 min 0 min 0,0 UV-I 0 W/m 5,1 km/h (1 Bft)
28.12.2013 23:44 6,3 C 5,0 C 96 % 1005,7 hPa 0,0 l/m 0 min 0 min 0,0 UV-I 0 W/m 0,0 km/h (0 Bft)
28.12.2013 23:46 6,3 C 5,0 C 96 % 1005,7 hPa 0,0 l/m 0 min 0 min 0,0 UV-I 0 W/m 0,0 km/h (0 Bft)
28.12.2013 23:48 6,3 C 5,0 C 96 % 1005,7 hPa 0,0 l/m 0 min 0 min 0,0 UV-I 0 W/m 0,0 km/h (0 Bft)
28.12.2013 23:50 6,3 C 5,0 C 96 % 1005,7 hPa 0,0 l/m 0 min 0 min 0,0 UV-I 0 W/m 0,0 km/h (0 Bft)
28.12.2013 23:52 6,3 C 5,0 C 96 % 1005,7 hPa 0,0 l/m 0 min 0 min 0,0 UV-I 0 W/m 5,1 km/h (1 Bft)
28.12.2013 23:54 6,3 C 5,0 C 96 % 1005,7 hPa 0,0 l/m 0 min 0 min 0,0 UV-I 0 W/m 0,0 km/h (0 Bft)
28.12.2013 23:56 6,3 C 5,0 C 96 % 1005,8 hPa 0,0 l/m 0 min 0 min 0,0 UV-I 0 W/m 0,0 km/h (0 Bft)
28.12.2013 23:58 6,3 C 5,0 C 96 % 1005,8 hPa 0,0 l/m 0 min 0 min 0,0 UV-I 0 W/m 0,0 km/h (0 Bft)
_ Min-Zeit 08:54 08:08 03:00 02:02 - - - - - 02:56
Minimum _ 6,3 C 5,0 C 91 % 994,3 hPa - - - - - 0,0 km/h (0 Bft)
_ Max-Zeit 02:36 00:58 10:56 23:38 02:52 12:42 00:00 00:00 13:02 00:14
Maximum _ 11,1 C 8,9 C 98 % 1005,8 hPa 0,6 l/m 2 min 2 min 0,0 UV-I 225 W/m 30,9 km/h
SO (5 Bft)
Durchschnitt _ 7,5 C 6,0 C 95 % 999,6 hPa #13,2 l/m #38 min. #9:32 h 0,0 UV-I 68 W/m 2,8 km/h (1 Bft)
© 2013 W. Hausmann